Time,TemperatureF,DewpointF,PressureIn,WindDirection,WindDirectionDegrees,WindSpeedMPH,WindSpeedGustMPH,Humidity,HourlyPrecipIn,Conditions,Clouds,dailyrainin,SoftwareType,DateUTC
2013-07-02 00:12:00,70.8,69.9,30.04,ESE,105,0.0,0.0,97,0.00,,---,0.37,VWS V14.01,2013-07-02 04:12:00,
2013-07-02 00:17:00,70.7,69.8,30.05,ESE,103,0.0,0.0,97,0.00,,---,0.37,VWS V14.01,2013-07-02 04:17:00,
2013-07-02 00:19:00,70.7,69.8,30.05,ESE,103,0.0,0.0,97,0.00,,---,0.37,VWS V14.01,2013-07-02 04:19:00,
2013-07-02 00:21:00,70.8,69.9,30.05,ESE,103,0.0,0.0,97,0.00,,---,0.37,VWS V14.01,2013-07-02 04:21:00,
2013-07-02 00:23:00,70.8,69.9,30.05,ESE,103,0.0,0.0,97,0.00,,---,0.37,VWS V14.01,2013-07-02 04:23:00,
2013-07-02 00:24:00,70.8,69.9,30.05,ESE,103,0.0,0.0,97,0.00,,---,0.37,VWS V14.01,2013-07-02 04:24:00,
2013-07-02 00:25:00,70.8,69.9,30.05,ESE,103,0.0,0.0,97,0.00,,---,0.37,VWS V14.01,2013-07-02 04:25:00,
2013-07-02 00:26:00,70.8,69.9,30.05,ESE,103,0.0,0.0,97,0.00,,---,0.37,VWS V14.01,2013-07-02 04:26:00,
2013-07-02 00:29:00,70.8,69.9,30.05,ESE,103,0.0,0.0,97,0.00,,---,0.37,VWS V14.01,2013-07-02 04:29:00,
2013-07-02 00:31:00,70.8,69.9,30.05,East,100,0.0,0.0,97,0.00,,---,0.37,VWS V14.01,2013-07-02 04:31:00,
2013-07-02 00:32:00,70.8,69.9,30.05,East,101,0.0,0.0,97,0.00,,---,0.37,VWS V14.01,2013-07-02 04:32:00,
2013-07-02 00:34:00,70.8,69.9,30.05,East,101,0.0,0.0,97,0.00,,---,0.37,VWS V14.01,2013-07-02 04:34:00,
2013-07-02 00:36:00,70.9,70.0,30.05,East,101,0.0,0.0,97,0.00,,---,0.37,VWS V14.01,2013-07-02 04:36:00,
2013-07-02 00:38:00,70.8,69.9,30.05,East,101,0.0,0.0,97,0.00,,---,0.37,VWS V14.01,2013-07-02 04:38:00,
2013-07-02 00:39:00,70.8,69.9,30.05,East,101,0.0,0.0,97,0.00,,---,0.37,VWS V14.01,2013-07-02 04:39:00,
2013-07-02 00:40:00,70.9,70.0,30.05,East,101,0.0,0.0,97,0.00,,---,0.37,VWS V14.01,2013-07-02 04:40:00,
2013-07-02 00:41:00,70.9,70.0,30.05,East,101,0.0,0.0,97,0.00,,---,0.37,VWS V14.01,2013-07-02 04:41:00,
2013-07-02 00:42:00,70.9,70.0,30.05,East,100,0.0,0.0,97,0.00,,---,0.37,VWS V14.01,2013-07-02 04:42:00,
2013-07-02 00:43:00,70.9,70.0,30.05,East,101,0.0,0.0,97,0.00,,---,0.37,VWS V14.01,2013-07-02 04:43:00,
2013-07-02 00:45:00,70.9,70.0,30.05,East,101,0.0,0.0,97,0.00,,---,0.37,VWS V14.01,2013-07-02 04:45:00,
2013-07-02 00:47:00,70.8,69.9,30.05,East,101,0.0,0.0,97,0.00,,---,0.37,VWS V14.01,2013-07-02 04:47:00,
2013-07-02 00:48:00,70.8,69.9,30.05,East,101,0.0,0.0,97,0.00,,---,0.37,VWS V14.01,2013-07-02 04:48:00,
2013-07-02 00:50:00,70.8,69.9,30.05,East,101,0.0,0.0,97,0.00,,---,0.37,VWS V14.01,2013-07-02 04:50:00,
2013-07-02 00:52:00,70.8,69.9,30.04,East,101,0.0,0.0,97,0.00,,---,0.37,VWS V14.01,2013-07-02 04:52:00,
2013-07-02 00:53:00,70.8,69.9,30.04,East,101,0.0,0.0,97,0.00,,---,0.37,VWS V14.01,2013-07-02 04:53:00,
2013-07-02 00:54:00,70.8,69.9,30.04,East,101,0.0,0.0,97,0.00,,---,0.37,VWS V14.01,2013-07-02 04:54:00,
2013-07-02 00:55:00,70.8,69.9,30.04,East,101,0.0,0.0,97,0.00,,---,0.37,VWS V14.01,2013-07-02 04:55:00,
2013-07-02 00:58:00,70.8,69.9,30.04,East,101,0.0,0.0,97,0.00,,---,0.00,VWS V14.01,2013-07-02 04:58:00,
2013-07-02 01:00:00,70.8,69.9,30.04,East,101,0.0,0.0,97,0.00,,---,0.00,VWS V14.01,2013-07-02 05:00:00,
2013-07-02 01:01:00,70.8,69.9,30.04,ESE,103,0.0,0.0,97,0.00,,---,0.00,VWS V14.01,2013-07-02 05:01:00,
2013-07-02 01:03:00,70.8,69.9,30.05,ESE,103,0.0,0.0,97,0.00,,---,0.00,VWS V14.01,2013-07-02 05:03:00,
2013-07-02 01:04:00,70.9,70.0,30.05,ESE,103,0.0,0.0,97,0.00,,---,0.00,VWS V14.01,2013-07-02 05:04:00,
2013-07-02 01:05:00,70.9,70.0,30.05,ESE,103,0.0,0.0,97,0.00,,---,0.00,VWS V14.01,2013-07-02 05:05:00,
2013-07-02 01:07:00,70.8,69.9,30.05,ESE,103,0.0,0.0,97,0.00,,---,0.00,VWS V14.01,2013-07-02 05:07:00,
2013-07-02 01:08:00,70.8,69.9,30.05,ESE,103,0.0,0.0,97,0.00,,---,0.00,VWS V14.01,2013-07-02 05:08:00,
2013-07-02 01:10:00,70.8,69.9,30.05,ESE,103,0.0,0.0,97,0.00,,---,0.00,VWS V14.01,2013-07-02 05:10:00,
2013-07-02 01:11:00,70.9,70.0,30.05,ESE,103,0.0,0.0,97,0.00,,---,0.00,VWS V14.01,2013-07-02 05:11:00,
2013-07-02 01:12:00,70.8,69.9,30.05,ESE,103,0.0,0.0,97,0.00,,---,0.00,VWS V14.01,2013-07-02 05:12:00,
2013-07-02 01:13:00,70.8,69.9,30.05,ESE,103,0.0,0.0,97,0.00,,---,0.00,VWS V14.01,2013-07-02 05:13:00,
2013-07-02 01:16:00,70.8,69.9,30.05,ESE,103,0.0,0.0,97,0.00,,---,0.00,VWS V14.01,2013-07-02 05:16:00,
2013-07-02 01:17:00,70.8,69.9,30.05,ESE,103,0.0,0.0,97,0.00,,---,0.00,VWS V14.01,2013-07-02 05:17:00,
2013-07-02 01:18:00,70.8,69.9,30.05,ESE,103,0.0,0.0,97,0.00,,---,0.00,VWS V14.01,2013-07-02 05:18:00,
2013-07-02 01:22:00,70.8,69.9,30.05,East,101,0.0,0.0,97,0.00,,---,0.00,VWS V14.01,2013-07-02 05:22:00,
2013-07-02 01:23:00,70.8,70.2,30.05,East,100,0.0,0.0,98,0.00,,---,0.00,VWS V14.01,2013-07-02 05:23:00,
2013-07-02 01:24:00,70.8,70.2,30.05,East,100,0.0,0.0,98,0.00,,---,0.00,VWS V14.01,2013-07-02 05:24:00,
2013-07-02 01:25:00,70.8,69.9,30.05,East,98,0.0,0.0,97,0.00,,---,0.00,VWS V14.01,2013-07-02 05:25:00,
2013-07-02 01:28:00,70.8,69.9,30.05,East,101,0.0,0.0,97,0.00,,---,0.00,VWS V14.01,2013-07-02 05:28:00,
2013-07-02 01:29:00,70.8,70.2,30.04,East,101,0.0,0.0,98,0.00,,---,0.00,VWS V14.01,2013-07-02 05:29:00,
2013-07-02 01:30:00,70.8,70.2,30.05,East,98,0.0,0.0,98,0.00,,---,0.00,VWS V14.01,2013-07-02 05:30:00,
2013-07-02 01:31:00,70.8,70.2,30.04,East,101,0.0,0.0,98,0.00,,---,0.00,VWS V14.01,2013-07-02 05:31:00,
2013-07-02 01:33:00,70.8,70.2,30.04,East,101,0.0,0.0,98,0.00,,---,0.00,VWS V14.01,2013-07-02 05:33:00,
2013-07-02 01:34:00,70.8,70.2,30.04,East,101,0.0,0.0,98,0.00,,---,0.00,VWS V14.01,2013-07-02 05:34:00,
2013-07-02 01:35:00,70.8,70.2,30.04,East,100,0.0,0.0,98,0.00,,---,0.00,VWS V14.01,2013-07-02 05:35:00,
2013-07-02 01:36:00,70.8,70.2,30.04,East,101,0.0,0.0,98,0.00,,---,0.00,VWS V14.01,2013-07-02 05:36:00,
2013-07-02 01:39:00,70.8,70.2,30.04,East,101,0.0,0.0,98,0.00,,---,0.00,VWS V14.01,2013-07-02 05:39:00,
2013-07-02 01:41:00,70.8,70.2,30.04,East,101,0.0,0.0,98,0.00,,---,0.00,VWS V14.01,2013-07-02 05:41:00,
2013-07-02 01:42:00,70.8,70.2,30.04,East,101,0.0,0.0,98,0.00,,---,0.00,VWS V14.01,2013-07-02 05:42:00,
2013-07-02 01:44:00,70.8,70.2,30.04,East,101,0.0,0.0,98,0.00,,---,0.00,VWS V14.01,2013-07-02 05:44:00,
2013-07-02 01:47:00,70.9,70.3,30.04,ESE,103,0.0,0.0,98,0.00,,---,0.00,VWS V14.01,2013-07-02 05:47:00,
2013-07-02 01:50:00,70.9,70.3,30.04,ESE,103,0.0,0.0,98,0.00,,---,0.00,VWS V14.01,2013-07-02 05:50:00,
2013-07-02 01:51:00,70.9,70.3,30.04,ESE,103,0.0,0.0,98,0.00,,---,0.00,VWS V14.01,2013-07-02 05:51:00,
2013-07-02 01:53:00,70.9,70.3,30.04,ESE,103,0.0,0.0,98,0.00,,---,0.00,VWS V14.01,2013-07-02 05:53:00,
2013-07-02 01:54:00,70.9,70.3,30.04,East,101,0.0,0.0,98,0.00,,---,0.00,VWS V14.01,2013-07-02 05:54:00,
2013-07-02 01:55:00,70.9,70.3,30.04,East,101,0.0,0.0,98,0.00,,---,0.00,VWS V14.01,2013-07-02 05:55:00,
2013-07-02 01:57:00,70.9,70.3,30.04,East,101,0.0,0.0,98,0.00,,---,0.00,VWS V14.01,2013-07-02 05:57:00,
2013-07-02 01:59:00,70.9,70.3,30.04,East,101,0.0,0.0,98,0.00,,---,0.00,VWS V14.01,2013-07-02 05:59:00,
2013-07-02 02:00:00,70.9,70.3,30.04,East,101,0.0,0.0,98,0.00,,---,0.00,VWS V14.01,2013-07-02 06:00:00,
2013-07-02 02:01:00,71.0,70.4,30.04,East,101,0.0,0.0,98,0.00,,---,0.00,VWS V14.01,2013-07-02 06:01:00,
2013-07-02 02:03:00,71.0,70.4,30.04,East,101,0.0,0.0,98,0.00,,---,0.00,VWS V14.01,2013-07-02 06:03:00,
2013-07-02 02:04:00,71.0,70.4,30.05,East,101,0.0,0.0,98,0.00,,---,0.00,VWS V14.01,2013-07-02 06:04:00,
2013-07-02 02:05:00,71.0,70.4,30.05,East,101,0.0,0.0,98,0.00,,---,0.00,VWS V14.01,2013-07-02 06:05:00,
2013-07-02 02:06:00,71.0,70.4,30.05,East,101,0.0,0.0,98,0.00,,---,0.00,VWS V14.01,2013-07-02 06:06:00,
2013-07-02 02:07:00,71.0,70.4,30.05,East,101,0.0,0.0,98,0.00,,---,0.00,VWS V14.01,2013-07-02 06:07:00,
2013-07-02 02:09:00,71.0,70.4,30.05,East,101,0.0,0.0,98,0.00,,---,0.00,VWS V14.01,2013-07-02 06:09:00,
2013-07-02 02:10:00,71.0,70.4,30.05,East,101,0.0,0.0,98,0.00,,---,0.00,VWS V14.01,2013-07-02 06:10:00,
2013-07-02 02:11:00,71.0,70.4,30.05,East,101,0.0,0.0,98,0.00,,---,0.00,VWS V14.01,2013-07-02 06:11:00,
2013-07-02 02:12:00,71.0,70.4,30.05,East,101,0.0,0.0,98,0.00,,---,0.00,VWS V14.01,2013-07-02 06:12:00,
2013-07-02 02:15:00,71.0,70.4,30.05,East,101,0.0,0.0,98,0.00,,---,0.00,VWS V14.01,2013-07-02 06:15:00,
2013-07-02 02:16:00,71.0,70.4,30.05,East,101,0.0,0.0,98,0.00,,---,0.00,VWS V14.01,2013-07-02 06:16:00,
2013-07-02 02:18:00,71.0,70.4,30.05,East,101,0.0,0.0,98,0.00,,---,0.00,VWS V14.01,2013-07-02 06:18:00,
2013-07-02 02:19:00,71.0,70.4,30.05,East,101,0.0,0.0,98,0.00,,---,0.00,VWS V14.01,2013-07-02 06:19:00,
2013-07-02 02:20:00,71.0,70.4,30.05,ESE,102,0.0,0.0,98,0.00,,---,0.00,VWS V14.01,2013-07-02 06:20:00,
2013-07-02 02:23:00,71.0,70.4,30.04,East,101,0.0,0.0,98,0.00,,---,0.00,VWS V14.01,2013-07-02 06:23:00,
2013-07-02 02:24:00,71.0,70.4,30.04,East,101,0.0,0.0,98,0.00,,---,0.00,VWS V14.01,2013-07-02 06:24:00,
2013-07-02 02:25:00,71.1,70.5,30.05,East,101,0.0,0.0,98,0.00,,---,0.00,VWS V14.01,2013-07-02 06:25:00,
2013-07-02 02:27:00,71.0,70.4,30.05,East,101,0.0,0.0,98,0.00,,---,0.00,VWS V14.01,2013-07-02 06:27:00,
2013-07-02 02:29:00,71.1,70.5,30.05,East,101,0.0,0.0,98,0.00,,---,0.00,VWS V14.01,2013-07-02 06:29:00,
2013-07-02 02:30:00,71.1,70.5,30.05,East,101,0.0,0.0,98,0.00,,---,0.00,VWS V14.01,2013-07-02 06:30:00,
2013-07-02 02:32:00,71.1,70.5,30.05,East,101,0.0,0.0,98,0.00,,---,0.00,VWS V14.01,2013-07-02 06:32:00,
2013-07-02 02:34:00,71.1,70.5,30.05,East,101,0.0,0.0,98,0.00,,---,0.00,VWS V14.01,2013-07-02 06:34:00,
2013-07-02 02:35:00,71.1,70.5,30.05,ESE,102,0.0,0.0,98,0.00,,---,0.00,VWS V14.01,2013-07-02 06:35:00,
2013-07-02 02:38:00,71.1,70.5,30.05,East,101,0.0,0.0,98,0.00,,---,0.00,VWS V14.01,2013-07-02 06:38:00,
2013-07-02 02:40:00,71.1,70.5,30.05,East,101,0.0,0.0,98,0.00,,---,0.00,VWS V14.01,2013-07-02 06:40:00,
2013-07-02 02:41:00,71.2,70.6,30.05,East,101,0.0,0.0,98,0.00,,---,0.00,VWS V14.01,2013-07-02 06:41:00,
2013-07-02 02:43:00,71.2,70.6,30.05,ESE,103,0.0,0.0,98,0.00,,---,0.00,VWS V14.01,2013-07-02 06:43:00,
2013-07-02 02:44:00,71.2,70.6,30.05,ESE,105,0.0,0.0,98,0.00,,---,0.00,VWS V14.01,2013-07-02 06:44:00,
2013-07-02 02:45:00,71.2,70.6,30.05,ESE,115,0.0,0.0,98,0.00,,---,0.00,VWS V14.01,2013-07-02 06:45:00,
2013-07-02 02:46:00,71.2,70.6,30.06,ESE,116,0.0,0.0,98,0.00,,---,0.00,VWS V14.01,2013-07-02 06:46:00,
2013-07-02 02:48:00,71.1,70.5,30.05,ESE,115,0.0,0.0,98,0.00,,---,0.00,VWS V14.01,2013-07-02 06:48:00,
2013-07-02 02:49:00,71.1,70.5,30.05,ESE,115,0.0,0.0,98,0.00,,---,0.00,VWS V14.01,2013-07-02 06:49:00,
2013-07-02 02:50:00,71.2,70.6,30.05,ESE,115,0.0,0.0,98,0.00,,---,0.00,VWS V14.01,2013-07-02 06:50:00,
2013-07-02 02:51:00,71.2,70.6,30.06,ESE,116,0.0,0.0,98,0.00,,---,0.00,VWS V14.01,2013-07-02 06:51:00,
2013-07-02 02:52:00,71.2,70.6,30.06,ESE,116,0.0,0.0,98,0.00,,---,0.00,VWS V14.01,2013-07-02 06:52:00,
2013-07-02 02:54:00,71.2,70.6,30.05,ESE,118,0.0,0.0,98,0.00,,---,0.00,VWS V14.01,2013-07-02 06:54:00,
2013-07-02 02:55:00,71.2,70.6,30.06,ESE,122,0.0,0.0,98,0.00,,---,0.00,VWS V14.01,2013-07-02 06:55:00,
2013-07-02 02:56:00,71.2,70.6,30.05,SE,146,0.0,0.0,98,0.00,,---,0.00,VWS V14.01,2013-07-02 06:56:00,
2013-07-02 02:57:00,71.2,70.6,30.05,SE,135,0.0,0.0,98,0.00,,---,0.00,VWS V14.01,2013-07-02 06:57:00,
2013-07-02 03:00:00,71.3,70.7,30.05,SE,128,0.0,0.0,98,0.00,,---,0.00,VWS V14.01,2013-07-02 07:00:00,
2013-07-02 03:01:00,71.4,70.8,30.05,East,83,0.0,0.0,98,0.00,,---,0.00,VWS V14.01,2013-07-02 07:01:00,
2013-07-02 03:02:00,71.5,70.9,30.05,East,98,0.0,0.0,98,0.00,,---,0.00,VWS V14.01,2013-07-02 07:02:00,
2013-07-02 03:03:00,71.5,70.9,30.05,ESE,116,0.0,0.0,98,0.00,,---,0.00,VWS V14.01,2013-07-02 07:03:00,
2013-07-02 03:06:00,71.6,71.0,30.06,ESE,114,0.0,0.0,98,0.00,,---,0.00,VWS V14.01,2013-07-02 07:06:00,
2013-07-02 03:07:00,71.7,71.1,30.06,South,174,0.0,0.0,98,0.00,,---,0.00,VWS V14.01,2013-07-02 07:07:00,
2013-07-02 03:09:00,71.8,71.2,30.06,SE,132,8.0,8.0,98,0.00,,---,0.00,VWS V14.01,2013-07-02 07:09:00,
2013-07-02 03:11:00,71.8,70.9,30.06,SE,143,8.0,9.0,97,0.00,,---,0.00,VWS V14.01,2013-07-02 07:11:00,
2013-07-02 03:12:00,71.9,71.0,30.06,SSE,148,6.0,9.0,97,0.00,,---,0.00,VWS V14.01,2013-07-02 07:12:00,
2013-07-02 03:14:00,72.0,71.1,30.06,SE,146,4.0,9.0,97,0.00,,---,0.00,VWS V14.01,2013-07-02 07:14:00,
2013-07-02 03:15:00,72.0,70.8,30.06,SSE,151,7.0,9.0,96,0.00,,---,0.00,VWS V14.01,2013-07-02 07:15:00,
2013-07-02 03:16:00,72.0,70.8,30.06,SSE,153,4.0,9.0,96,0.00,,---,0.00,VWS V14.01,2013-07-02 07:16:00,
2013-07-02 03:17:00,72.0,70.8,30.06,ESE,110,5.0,9.0,96,0.00,,---,0.00,VWS V14.01,2013-07-02 07:17:00,
2013-07-02 03:19:00,72.1,70.9,30.05,SE,125,8.0,9.0,96,0.00,,---,0.00,VWS V14.01,2013-07-02 07:19:00,
2013-07-02 03:20:00,72.1,70.9,30.05,SE,143,7.0,9.0,96,0.00,,---,0.00,VWS V14.01,2013-07-02 07:20:00,
2013-07-02 03:21:00,72.1,70.9,30.05,SE,142,5.0,9.0,96,0.00,,---,0.00,VWS V14.01,2013-07-02 07:21:00,
2013-07-02 03:23:00,72.1,70.9,30.05,SSE,153,4.0,9.0,96,0.00,,---,0.00,VWS V14.01,2013-07-02 07:23:00,
2013-07-02 03:25:00,72.1,70.9,30.06,SSE,150,7.0,9.0,96,0.00,,---,0.00,VWS V14.01,2013-07-02 07:25:00,
2013-07-02 03:26:00,72.2,71.0,30.06,SE,143,5.0,9.0,96,0.00,,---,0.00,VWS V14.01,2013-07-02 07:26:00,
2013-07-02 03:28:00,72.1,70.9,30.06,ESE,121,5.0,9.0,96,0.00,,---,0.00,VWS V14.01,2013-07-02 07:28:00,
2013-07-02 03:31:00,72.2,71.0,30.06,South,170,3.0,5.0,96,0.00,,---,0.00,VWS V14.01,2013-07-02 07:31:00,
2013-07-02 03:34:00,72.2,71.0,30.06,SE,140,4.0,5.0,96,0.00,,---,0.00,VWS V14.01,2013-07-02 07:34:00,
2013-07-02 03:37:00,72.2,71.0,30.06,East,96,5.0,5.0,96,0.00,,---,0.00,VWS V14.01,2013-07-02 07:37:00,
2013-07-02 03:39:00,72.1,70.6,30.06,SSE,149,5.0,6.0,95,0.00,,---,0.00,VWS V14.01,2013-07-02 07:39:00,
2013-07-02 03:41:00,72.2,70.7,30.06,SE,134,6.0,7.0,95,0.00,,---,0.00,VWS V14.01,2013-07-02 07:41:00,
2013-07-02 03:42:00,72.2,70.7,30.06,East,91,4.0,7.0,95,0.00,,---,0.00,VWS V14.01,2013-07-02 07:42:00,
2013-07-02 03:44:00,72.2,70.7,30.06,SSE,152,4.0,7.0,95,0.00,,---,0.00,VWS V14.01,2013-07-02 07:44:00,
2013-07-02 03:45:00,72.2,70.7,30.06,East,93,4.0,7.0,95,0.00,,---,0.00,VWS V14.01,2013-07-02 07:45:00,
2013-07-02 03:46:00,72.2,70.7,30.06,SE,134,3.0,7.0,95,0.00,,---,0.00,VWS V14.01,2013-07-02 07:46:00,
2013-07-02 03:47:00,72.2,70.7,30.06,SE,141,3.0,7.0,95,0.00,,---,0.00,VWS V14.01,2013-07-02 07:47:00,
2013-07-02 03:50:00,72.2,70.7,30.06,SSE,164,6.0,7.0,95,0.00,,---,0.00,VWS V14.01,2013-07-02 07:50:00,
2013-07-02 03:51:00,72.2,70.7,30.06,SE,146,6.0,7.0,95,0.00,,---,0.00,VWS V14.01,2013-07-02 07:51:00,
2013-07-02 03:52:00,72.2,70.7,30.06,SSE,149,6.0,7.0,95,0.00,,---,0.00,VWS V14.01,2013-07-02 07:52:00,
2013-07-02 03:53:00,72.2,70.7,30.06,ESE,111,5.0,7.0,95,0.00,,---,0.00,VWS V14.01,2013-07-02 07:53:00,
2013-07-02 03:56:00,72.2,70.7,30.06,SE,131,6.0,7.0,95,0.00,,---,0.00,VWS V14.01,2013-07-02 07:56:00,
2013-07-02 03:57:00,72.3,70.8,30.06,SE,132,5.0,7.0,95,0.00,,---,0.00,VWS V14.01,2013-07-02 07:57:00,
2013-07-02 03:59:00,72.3,70.8,30.06,SE,139,5.0,6.0,95,0.00,,---,0.00,VWS V14.01,2013-07-02 07:59:00,
2013-07-02 04:02:00,72.3,70.8,30.06,ESE,110,5.0,8.0,95,0.00,,---,0.00,VWS V14.01,2013-07-02 08:02:00,
2013-07-02 04:03:00,72.3,70.8,30.06,SE,131,5.0,8.0,95,0.00,,---,0.00,VWS V14.01,2013-07-02 08:03:00,
2013-07-02 04:04:00,72.3,70.8,30.06,ESE,108,6.0,8.0,95,0.00,,---,0.00,VWS V14.01,2013-07-02 08:04:00,
2013-07-02 04:07:00,72.2,70.7,30.06,SE,131,7.0,8.0,95,0.00,,---,0.00,VWS V14.01,2013-07-02 08:07:00,
2013-07-02 04:09:00,72.2,70.7,30.06,SE,146,7.0,8.0,95,0.00,,---,0.00,VWS V14.01,2013-07-02 08:09:00,
2013-07-02 04:10:00,72.2,70.7,30.06,ESE,103,6.0,8.0,95,0.00,,---,0.00,VWS V14.01,2013-07-02 08:10:00,
2013-07-02 04:11:00,72.2,70.7,30.06,ESE,113,7.0,8.0,95,0.00,,---,0.00,VWS V14.01,2013-07-02 08:11:00,
2013-07-02 04:13:00,72.2,70.7,30.06,ESE,118,6.0,9.0,95,0.00,,---,0.00,VWS V14.01,2013-07-02 08:13:00,
2013-07-02 04:14:00,72.2,70.7,30.06,ESE,113,6.0,9.0,95,0.00,,---,0.00,VWS V14.01,2013-07-02 08:14:00,
2013-07-02 04:15:00,72.2,70.7,30.06,ESE,109,5.0,9.0,95,0.00,,---,0.00,VWS V14.01,2013-07-02 08:15:00,
2013-07-02 04:17:00,72.1,70.6,30.06,SE,125,5.0,9.0,95,0.00,,---,0.00,VWS V14.01,2013-07-02 08:17:00,
2013-07-02 04:18:00,72.1,70.6,30.06,SE,131,3.0,9.0,95,0.00,,---,0.00,VWS V14.01,2013-07-02 08:18:00,
2013-07-02 04:19:00,72.1,70.6,30.06,SE,125,4.0,9.0,95,0.00,,---,0.00,VWS V14.01,2013-07-02 08:19:00,
2013-07-02 04:21:00,72.1,70.6,30.06,ESE,120,2.0,9.0,95,0.00,,---,0.00,VWS V14.01,2013-07-02 08:21:00,
2013-07-02 04:22:00,72.1,70.6,30.06,ESE,109,2.0,9.0,95,0.00,,---,0.00,VWS V14.01,2013-07-02 08:22:00,
2013-07-02 04:24:00,72.1,70.6,30.06,East,99,3.0,9.0,95,0.00,,---,0.00,VWS V14.01,2013-07-02 08:24:00,
2013-07-02 04:25:00,72.1,70.6,30.06,SE,129,4.0,9.0,95,0.00,,---,0.00,VWS V14.01,2013-07-02 08:25:00,
2013-07-02 04:26:00,72.1,70.6,30.05,ESE,113,4.0,9.0,95,0.00,,---,0.00,VWS V14.01,2013-07-02 08:26:00,
2013-07-02 04:27:00,72.1,70.6,30.05,SE,126,4.0,9.0,95,0.00,,---,0.00,VWS V14.01,2013-07-02 08:27:00,
2013-07-02 04:29:00,72.1,70.6,30.06,ESE,121,3.0,5.0,95,0.00,,---,0.00,VWS V14.01,2013-07-02 08:29:00,
2013-07-02 04:32:00,72.1,70.6,30.06,SSE,160,2.0,5.0,95,0.00,,---,0.00,VWS V14.01,2013-07-02 08:32:00,
2013-07-02 04:33:00,72.1,70.6,30.06,East,101,2.0,5.0,95,0.00,,---,0.00,VWS V14.01,2013-07-02 08:33:00,
2013-07-02 04:34:00,72.1,70.6,30.06,East,89,2.0,5.0,95,0.00,,---,0.00,VWS V14.01,2013-07-02 08:34:00,
2013-07-02 04:37:00,72.2,70.7,30.06,SSE,155,5.0,7.0,95,0.00,,---,0.00,VWS V14.01,2013-07-02 08:37:00,
2013-07-02 04:38:00,72.2,70.4,30.07,SW,214,1.0,7.0,94,0.00,,---,0.00,VWS V14.01,2013-07-02 08:38:00,
2013-07-02 04:39:00,72.2,70.4,30.07,SW,214,1.0,7.0,94,0.00,,---,0.00,VWS V14.01,2013-07-02 08:39:00,
2013-07-02 04:41:00,72.2,70.4,30.07,SSW,212,0.0,7.0,94,0.00,,---,0.00,VWS V14.01,2013-07-02 08:41:00,
2013-07-02 04:42:00,72.2,70.4,30.07,SSW,212,1.0,7.0,94,0.00,,---,0.00,VWS V14.01,2013-07-02 08:42:00,
2013-07-02 04:44:00,72.2,70.4,30.07,SSW,212,0.0,7.0,94,0.00,,---,0.00,VWS V14.01,2013-07-02 08:44:00,
2013-07-02 04:46:00,72.2,70.4,30.07,SSW,212,0.0,7.0,94,0.00,,---,0.00,VWS V14.01,2013-07-02 08:46:00,
2013-07-02 04:48:00,72.1,70.3,30.07,SSW,212,0.0,7.0,94,0.00,,---,0.00,VWS V14.01,2013-07-02 08:48:00,
2013-07-02 04:49:00,72.1,70.6,30.06,SSW,212,0.0,7.0,95,0.00,,---,0.00,VWS V14.01,2013-07-02 08:49:00,
2013-07-02 04:51:00,72.0,70.5,30.06,SSW,193,0.0,7.0,95,0.00,,---,0.00,VWS V14.01,2013-07-02 08:51:00,
2013-07-02 04:52:00,72.0,70.5,30.06,SSW,194,0.0,7.0,95,0.00,,---,0.00,VWS V14.01,2013-07-02 08:52:00,
2013-07-02 04:54:00,72.0,70.5,30.06,SSW,194,0.0,7.0,95,0.00,,---,0.00,VWS V14.01,2013-07-02 08:54:00,
2013-07-02 04:55:00,72.0,70.5,30.06,SSW,194,0.0,7.0,95,0.00,,---,0.00,VWS V14.01,2013-07-02 08:55:00,
2013-07-02 04:57:00,72.0,70.5,30.06,SSW,194,0.0,7.0,95,0.00,,---,0.00,VWS V14.01,2013-07-02 08:57:00,
2013-07-02 05:00:00,72.0,70.5,30.06,South,169,0.0,0.0,95,0.00,,---,0.00,VWS V14.01,2013-07-02 09:00:00,
2013-07-02 05:01:00,71.9,70.4,30.06,ESE,108,0.0,0.0,95,0.00,,---,0.00,VWS V14.01,2013-07-02 09:01:00,
2013-07-02 05:02:00,71.9,70.4,30.06,ESE,108,0.0,0.0,95,0.00,,---,0.00,VWS V14.01,2013-07-02 09:02:00,
2013-07-02 05:05:00,71.9,70.4,30.06,ESE,118,0.0,0.0,95,0.00,,---,0.00,VWS V14.01,2013-07-02 09:05:00,
2013-07-02 05:06:00,71.9,70.4,30.07,SE,129,0.0,0.0,95,0.00,,---,0.00,VWS V14.01,2013-07-02 09:06:00,
2013-07-02 05:08:00,71.9,70.4,30.07,ESE,106,0.0,0.0,95,0.00,,---,0.00,VWS V14.01,2013-07-02 09:08:00,
2013-07-02 05:10:00,72.0,70.5,30.07,SE,126,0.0,0.0,95,0.00,,---,0.00,VWS V14.01,2013-07-02 09:10:00,
2013-07-02 05:11:00,71.9,70.4,30.07,ESE,120,0.0,0.0,95,0.00,,---,0.00,VWS V14.01,2013-07-02 09:11:00,
2013-07-02 05:12:00,72.0,70.5,30.07,ESE,117,0.0,0.0,95,0.00,,---,0.00,VWS V14.01,2013-07-02 09:12:00,
2013-07-02 05:13:00,72.0,70.5,30.07,ESE,115,0.0,0.0,95,0.00,,---,0.00,VWS V14.01,2013-07-02 09:13:00,
2013-07-02 05:16:00,72.0,70.5,30.07,ESE,122,3.0,3.0,95,0.00,,---,0.00,VWS V14.01,2013-07-02 09:16:00,
2013-07-02 05:17:00,71.9,70.4,30.07,ESE,106,3.0,3.0,95,0.00,,---,0.00,VWS V14.01,2013-07-02 09:17:00,
2013-07-02 05:18:00,71.9,70.4,30.07,ESE,115,2.0,3.0,95,0.00,,---,0.00,VWS V14.01,2013-07-02 09:18:00,
2013-07-02 05:21:00,71.9,70.4,30.07,SE,146,2.0,3.0,95,0.00,,---,0.00,VWS V14.01,2013-07-02 09:21:00,
2013-07-02 05:22:00,71.9,70.4,30.07,SE,127,0.0,3.0,95,0.00,,---,0.00,VWS V14.01,2013-07-02 09:22:00,
2013-07-02 05:23:00,71.9,70.4,30.07,SE,143,2.0,3.0,95,0.00,,---,0.00,VWS V14.01,2013-07-02 09:23:00,
2013-07-02 05:26:00,71.9,70.4,30.07,SW,222,3.0,3.0,95,0.00,,---,0.00,VWS V14.01,2013-07-02 09:26:00,
2013-07-02 05:28:00,71.8,70.3,30.07,SW,229,2.0,4.0,95,0.00,,---,0.00,VWS V14.01,2013-07-02 09:28:00,
2013-07-02 05:31:00,71.7,70.2,30.08,SW,224,2.0,3.0,95,0.00,,---,0.00,VWS V14.01,2013-07-02 09:31:00,
2013-07-02 05:32:00,71.6,70.1,30.08,SW,217,3.0,3.0,95,0.00,,---,0.00,VWS V14.01,2013-07-02 09:32:00,
2013-07-02 05:33:00,71.6,70.1,30.08,SW,215,2.0,3.0,95,0.00,,---,0.00,VWS V14.01,2013-07-02 09:33:00,
2013-07-02 05:34:00,71.6,70.1,30.08,SSW,204,2.0,3.0,95,0.00,,---,0.00,VWS V14.01,2013-07-02 09:34:00,
2013-07-02 05:37:00,71.6,70.4,30.08,SSW,193,2.0,7.0,96,0.00,,---,0.00,VWS V14.01,2013-07-02 09:37:00,
2013-07-02 05:38:00,71.6,70.4,30.08,East,98,2.0,7.0,96,0.00,,---,0.00,VWS V14.01,2013-07-02 09:38:00,
2013-07-02 05:39:00,71.6,70.4,30.08,ESE,103,4.0,7.0,96,0.00,,---,0.00,VWS V14.01,2013-07-02 09:39:00,
2013-07-02 05:44:00,72.0,70.5,30.08,ESE,117,6.0,10.0,95,0.00,,---,0.00,VWS V14.01,2013-07-02 09:44:00,
2013-07-02 05:45:00,72.0,70.5,30.08,East,90,3.0,10.0,95,0.00,,---,0.00,VWS V14.01,2013-07-02 09:45:00,
2013-07-02 05:46:00,72.0,70.5,30.08,SSW,207,4.0,10.0,95,0.00,,---,0.00,VWS V14.01,2013-07-02 09:46:00,
2013-07-02 05:50:00,72.2,70.7,30.08,East,85,6.0,10.0,95,0.00,,---,0.00,VWS V14.01,2013-07-02 09:50:00,
2013-07-02 05:51:00,72.2,70.7,30.08,SE,143,3.0,10.0,95,0.00,,---,0.00,VWS V14.01,2013-07-02 09:51:00,
2013-07-02 05:52:00,72.2,70.7,30.08,ENE,71,2.0,10.0,95,0.00,,---,0.00,VWS V14.01,2013-07-02 09:52:00,
2013-07-02 05:56:00,72.2,70.7,30.08,ENE,75,3.0,10.0,95,0.00,,---,0.00,VWS V14.01,2013-07-02 09:56:00,
2013-07-02 05:57:00,72.2,70.7,30.09,SE,131,3.0,10.0,95,0.00,,---,0.00,VWS V14.01,2013-07-02 09:57:00,
2013-07-02 05:58:00,72.2,70.4,30.09,NNW,345,6.0,7.0,94,0.00,,---,0.00,VWS V14.01,2013-07-02 09:58:00,
2013-07-02 06:02:00,72.3,70.5,30.09,ESE,109,4.0,8.0,94,0.00,,---,0.00,VWS V14.01,2013-07-02 10:02:00,
2013-07-02 06:03:00,72.3,70.5,30.09,SE,129,1.0,8.0,94,0.00,,---,0.00,VWS V14.01,2013-07-02 10:03:00,
2013-07-02 06:04:00,72.3,70.5,30.09,SSW,198,1.0,8.0,94,0.00,,---,0.00,VWS V14.01,2013-07-02 10:04:00,
2013-07-02 06:07:00,72.3,70.5,30.09,SE,128,4.0,8.0,94,0.00,,---,0.00,VWS V14.01,2013-07-02 10:07:00,
2013-07-02 06:08:00,72.3,70.5,30.09,SSW,193,3.0,8.0,94,0.00,,---,0.00,VWS V14.01,2013-07-02 10:08:00,
2013-07-02 06:09:00,72.3,70.5,30.09,SSE,152,2.0,8.0,94,0.00,,---,0.00,VWS V14.01,2013-07-02 10:09:00,
2013-07-02 06:10:00,72.3,70.5,30.09,ENE,65,2.0,8.0,94,0.00,,---,0.00,VWS V14.01,2013-07-02 10:10:00,
2013-07-02 06:13:00,72.3,70.5,30.09,SSW,198,3.0,8.0,94,0.00,,---,0.00,VWS V14.01,2013-07-02 10:13:00,
2013-07-02 06:14:00,72.3,70.5,30.09,South,176,5.0,8.0,94,0.00,,---,0.00,VWS V14.01,2013-07-02 10:14:00,
2013-07-02 06:15:00,72.3,70.8,30.09,South,169,6.0,8.0,95,0.00,,---,0.00,VWS V14.01,2013-07-02 10:15:00,
2013-07-02 06:16:00,72.3,70.5,30.09,ESE,105,2.0,8.0,94,0.00,,---,0.00,VWS V14.01,2013-07-02 10:16:00,
2013-07-02 06:19:00,72.3,70.8,30.09,ESE,115,5.0,8.0,95,0.00,,---,0.00,VWS V14.01,2013-07-02 10:19:00,
2013-07-02 06:20:00,72.3,70.5,30.09,SE,127,4.0,8.0,94,0.00,,---,0.00,VWS V14.01,2013-07-02 10:20:00,
2013-07-02 06:22:00,72.3,70.5,30.09,SSE,156,3.0,8.0,94,0.00,,---,0.00,VWS V14.01,2013-07-02 10:22:00,
2013-07-02 06:24:00,72.4,70.6,30.09,SSE,156,2.0,8.0,94,0.00,,---,0.00,VWS V14.01,2013-07-02 10:24:00,
2013-07-02 06:25:00,72.4,70.6,30.09,SSE,147,3.0,8.0,94,0.00,,---,0.00,VWS V14.01,2013-07-02 10:25:00,
2013-07-02 06:27:00,72.4,70.6,30.09,ESE,118,2.0,8.0,94,0.00,,---,0.00,VWS V14.01,2013-07-02 10:27:00,
2013-07-02 06:28:00,72.5,71.0,30.09,SSE,152,1.0,2.0,95,0.00,,---,0.00,VWS V14.01,2013-07-02 10:28:00,
2013-07-02 06:29:00,72.5,70.7,30.10,SE,142,1.0,2.0,94,0.00,,---,0.00,VWS V14.01,2013-07-02 10:29:00,
2013-07-02 06:30:00,72.5,70.7,30.09,SSE,164,2.0,3.0,94,0.00,,---,0.00,VWS V14.01,2013-07-02 10:30:00,
2013-07-02 06:32:00,72.5,70.7,30.10,SE,134,2.0,3.0,94,0.00,,---,0.00,VWS V14.01,2013-07-02 10:32:00,
2013-07-02 06:33:00,72.5,70.7,30.10,SE,134,0.0,3.0,94,0.00,,---,0.00,VWS V14.01,2013-07-02 10:33:00,
2013-07-02 06:34:00,72.6,70.8,30.10,SW,224,0.0,3.0,94,0.00,,---,0.00,VWS V14.01,2013-07-02 10:34:00,
2013-07-02 06:35:00,72.6,70.8,30.10,SSE,162,0.0,3.0,94,0.00,,---,0.00,VWS V14.01,2013-07-02 10:35:00,
2013-07-02 06:38:00,72.6,70.8,30.10,SSE,154,0.0,3.0,94,0.00,,---,0.00,VWS V14.01,2013-07-02 10:38:00,
2013-07-02 06:39:00,72.7,70.9,30.10,SE,129,2.0,3.0,94,0.00,,---,0.00,VWS V14.01,2013-07-02 10:39:00,
2013-07-02 06:40:00,72.7,70.9,30.10,SE,137,2.0,3.0,94,0.00,,---,0.00,VWS V14.01,2013-07-02 10:40:00,
2013-07-02 06:44:00,72.6,70.8,30.10,SE,134,0.0,3.0,94,0.00,,---,0.00,VWS V14.01,2013-07-02 10:44:00,
2013-07-02 06:45:00,72.7,70.9,30.10,SE,134,1.0,3.0,94,0.00,,---,0.00,VWS V14.01,2013-07-02 10:45:00,
2013-07-02 06:47:00,72.7,70.9,30.09,SE,131,2.0,3.0,94,0.00,,---,0.00,VWS V14.01,2013-07-02 10:47:00,
2013-07-02 06:50:00,72.6,70.8,30.09,ESE,113,2.0,3.0,94,0.00,,---,0.00,VWS V14.01,2013-07-02 10:50:00,
2013-07-02 06:51:00,72.6,70.8,30.09,ESE,113,1.0,3.0,94,0.00,,---,0.00,VWS V14.01,2013-07-02 10:51:00,
2013-07-02 06:52:00,72.6,70.8,30.09,ESE,120,2.0,3.0,94,0.00,,---,0.00,VWS V14.01,2013-07-02 10:52:00,
2013-07-02 06:53:00,72.6,70.8,30.09,ESE,116,1.0,3.0,94,0.00,,---,0.00,VWS V14.01,2013-07-02 10:53:00,
2013-07-02 06:55:00,72.7,70.9,30.09,East,101,2.0,3.0,94,0.00,,---,0.00,VWS V14.01,2013-07-02 10:55:00,
2013-07-02 06:56:00,72.7,70.9,30.09,East,101,2.0,3.0,94,0.00,,---,0.00,VWS V14.01,2013-07-02 10:56:00,
2013-07-02 06:57:00,72.7,70.9,30.09,East,97,0.0,3.0,94,0.00,,---,0.00,VWS V14.01,2013-07-02 10:57:00,
2013-07-02 06:58:00,72.7,70.9,30.09,East,97,0.0,3.0,94,0.00,,---,0.00,VWS V14.01,2013-07-02 10:58:00,
2013-07-02 06:59:00,72.7,70.9,30.10,East,97,0.0,0.0,94,0.00,,---,0.00,VWS V14.01,2013-07-02 10:59:00,
2013-07-02 07:01:00,72.8,71.0,30.10,East,98,0.0,1.0,94,0.00,,---,0.00,VWS V14.01,2013-07-02 11:01:00,
2013-07-02 07:02:00,72.8,71.0,30.10,East,97,1.0,1.0,94,0.00,,---,0.00,VWS V14.01,2013-07-02 11:02:00,
2013-07-02 07:03:00,72.9,71.1,30.10,East,98,0.0,1.0,94,0.00,,---,0.00,VWS V14.01,2013-07-02 11:03:00,
2013-07-02 07:04:00,72.9,71.1,30.10,East,97,1.0,1.0,94,0.00,,---,0.00,VWS V14.01,2013-07-02 11:04:00,
2013-07-02 07:05:00,72.9,71.1,30.10,East,97,0.0,1.0,94,0.00,,---,0.00,VWS V14.01,2013-07-02 11:05:00,
2013-07-02 07:06:00,73.0,71.2,30.10,East,97,0.0,1.0,94,0.00,,---,0.00,VWS V14.01,2013-07-02 11:06:00,
2013-07-02 07:07:00,73.0,71.2,30.10,East,97,0.0,1.0,94,0.00,,---,0.00,VWS V14.01,2013-07-02 11:07:00,
2013-07-02 07:08:00,73.0,71.2,30.10,East,97,0.0,1.0,94,0.00,,---,0.00,VWS V14.01,2013-07-02 11:08:00,
2013-07-02 07:10:00,73.1,71.3,30.10,East,97,0.0,1.0,94,0.00,,---,0.00,VWS V14.01,2013-07-02 11:10:00,
2013-07-02 07:12:00,73.2,71.4,30.10,ENE,68,0.0,1.0,94,0.00,,---,0.00,VWS V14.01,2013-07-02 11:12:00,
2013-07-02 07:14:00,73.3,71.8,30.10,ENE,68,0.0,1.0,95,0.00,,---,0.00,VWS V14.01,2013-07-02 11:14:00,
2013-07-02 07:15:00,73.4,71.9,30.10,ENE,68,0.0,1.0,95,0.00,,---,0.00,VWS V14.01,2013-07-02 11:15:00,
2013-07-02 07:16:00,73.4,71.9,30.10,ENE,68,0.0,1.0,95,0.00,,---,0.00,VWS V14.01,2013-07-02 11:16:00,
2013-07-02 07:17:00,73.5,71.7,30.10,ENE,68,0.0,1.0,94,0.00,,---,0.00,VWS V14.01,2013-07-02 11:17:00,
2013-07-02 07:18:00,73.5,71.7,30.10,ENE,68,0.0,1.0,94,0.00,,---,0.00,VWS V14.01,2013-07-02 11:18:00,
2013-07-02 07:20:00,73.7,71.9,30.10,ENE,68,0.0,1.0,94,0.00,,---,0.00,VWS V14.01,2013-07-02 11:20:00,
2013-07-02 07:22:00,73.7,71.9,30.10,ENE,77,2.0,2.0,94,0.00,,---,0.00,VWS V14.01,2013-07-02 11:22:00,
2013-07-02 07:23:00,73.7,71.6,30.10,ENE,65,2.0,4.0,93,0.00,,---,0.00,VWS V14.01,2013-07-02 11:23:00,
2013-07-02 07:25:00,73.5,71.4,30.10,NE,55,0.0,4.0,93,0.00,,---,0.00,VWS V14.01,2013-07-02 11:25:00,
2013-07-02 07:28:00,73.4,71.6,30.11,ENE,65,2.0,4.0,94,0.00,,---,0.00,VWS V14.01,2013-07-02 11:28:00,
2013-07-02 07:29:00,73.5,71.7,30.11,ENE,67,0.0,1.0,94,0.00,,---,0.00,VWS V14.01,2013-07-02 11:29:00,
2013-07-02 07:31:00,73.5,71.7,30.11,ENE,65,1.0,1.0,94,0.00,,---,0.00,VWS V14.01,2013-07-02 11:31:00,
2013-07-02 07:33:00,73.5,71.7,30.11,ENE,60,2.0,3.0,94,0.00,,---,0.00,VWS V14.01,2013-07-02 11:33:00,
2013-07-02 07:34:00,73.5,71.4,30.11,East,84,1.0,3.0,93,0.00,,---,0.00,VWS V14.01,2013-07-02 11:34:00,
2013-07-02 07:35:00,73.5,71.4,30.11,East,84,0.0,3.0,93,0.00,,---,0.00,VWS V14.01,2013-07-02 11:35:00,
2013-07-02 07:38:00,73.6,71.8,30.11,ENE,72,0.0,3.0,94,0.00,,---,0.00,VWS V14.01,2013-07-02 11:38:00,
2013-07-02 07:39:00,73.6,71.8,30.11,ENE,72,0.0,3.0,94,0.00,,---,0.00,VWS V14.01,2013-07-02 11:39:00,
2013-07-02 07:40:00,73.7,71.9,30.11,ENE,72,0.0,3.0,94,0.00,,---,0.00,VWS V14.01,2013-07-02 11:40:00,
2013-07-02 07:41:00,73.8,72.0,30.11,ENE,72,0.0,3.0,94,0.00,,---,0.00,VWS V14.01,2013-07-02 11:41:00,
2013-07-02 07:43:00,74.0,72.2,30.11,ENE,72,1.0,3.0,94,0.00,,---,0.00,VWS V14.01,2013-07-02 11:43:00,
2013-07-02 07:44:00,74.0,71.8,30.11,ENE,72,0.0,3.0,93,0.00,,---,0.00,VWS V14.01,2013-07-02 11:44:00,
2013-07-02 07:45:00,73.9,71.8,30.11,ENE,72,0.0,3.0,93,0.00,,---,0.00,VWS V14.01,2013-07-02 11:45:00,
2013-07-02 07:46:00,74.0,71.8,30.11,East,92,2.0,3.0,93,0.00,,---,0.00,VWS V14.01,2013-07-02 11:46:00,
2013-07-02 07:50:00,73.8,71.3,30.12,East,84,2.0,3.0,92,0.00,,---,0.00,VWS V14.01,2013-07-02 11:50:00,
2013-07-02 07:51:00,73.7,71.2,30.12,East,92,4.0,4.0,92,0.00,,---,0.00,VWS V14.01,2013-07-02 11:51:00,
2013-07-02 07:52:00,73.7,71.2,30.12,East,89,4.0,5.0,92,0.00,,---,0.00,VWS V14.01,2013-07-02 11:52:00,
2013-07-02 07:55:00,73.5,71.4,30.12,NE,39,2.0,5.0,93,0.00,,---,0.00,VWS V14.01,2013-07-02 11:55:00,
2013-07-02 07:56:00,73.4,71.3,30.12,NNW,345,6.0,9.0,93,0.00,,---,0.00,VWS V14.01,2013-07-02 11:56:00,
2013-07-02 07:57:00,72.9,69.1,30.13,NNW,336,7.0,9.0,88,0.00,,---,0.00,VWS V14.01,2013-07-02 11:57:00,
2013-07-02 07:58:00,72.4,68.3,30.13,North,357,3.0,3.0,87,0.00,,---,0.00,VWS V14.01,2013-07-02 11:58:00,
2013-07-02 08:00:00,71.7,68.0,30.13,NNE,16,2.0,6.0,88,0.00,,---,0.00,VWS V14.01,2013-07-02 12:00:00,
2013-07-02 08:01:00,71.3,67.6,30.13,NNW,345,3.0,6.0,88,0.00,,---,0.00,VWS V14.01,2013-07-02 12:01:00,
2013-07-02 08:03:00,70.8,67.4,30.13,NNW,332,0.0,6.0,89,0.00,,---,0.00,VWS V14.01,2013-07-02 12:03:00,
2013-07-02 08:06:00,70.0,66.6,30.13,NNW,336,2.0,9.0,89,0.00,,---,0.00,VWS V14.01,2013-07-02 12:06:00,
2013-07-02 08:07:00,69.6,66.2,30.13,North,8,6.0,9.0,89,0.00,,---,0.00,VWS V14.01,2013-07-02 12:07:00,
2013-07-02 08:08:00,69.3,65.9,30.13,NE,46,2.0,9.0,89,0.00,,---,0.00,VWS V14.01,2013-07-02 12:08:00,
2013-07-02 08:09:00,68.9,65.5,30.13,ENE,60,2.0,9.0,89,0.00,,---,0.00,VWS V14.01,2013-07-02 12:09:00,
2013-07-02 08:11:00,68.5,65.5,30.13,North,349,2.0,9.0,90,0.00,,---,0.00,VWS V14.01,2013-07-02 12:11:00,
2013-07-02 08:13:00,68.1,65.4,30.13,NW,326,2.0,9.0,91,0.00,,---,0.00,VWS V14.01,2013-07-02 12:13:00,
2013-07-02 08:14:00,67.9,65.2,30.13,NNE,19,1.0,9.0,91,0.00,,---,0.00,VWS V14.01,2013-07-02 12:14:00,
2013-07-02 08:16:00,67.6,64.9,30.13,NNW,336,1.0,9.0,91,0.00,,---,0.00,VWS V14.01,2013-07-02 12:16:00,
2013-07-02 08:17:00,67.4,64.7,30.13,NNW,328,1.0,9.0,91,0.00,,---,0.00,VWS V14.01,2013-07-02 12:17:00,
2013-07-02 08:18:00,67.3,64.6,30.13,North,353,3.0,9.0,91,0.00,,---,0.00,VWS V14.01,2013-07-02 12:18:00,
2013-07-02 08:20:00,67.0,64.3,30.14,ENE,77,2.0,9.0,91,0.00,,---,0.00,VWS V14.01,2013-07-02 12:20:00,
2013-07-02 08:21:00,66.8,64.1,30.14,NNE,28,2.0,9.0,91,0.00,,---,0.00,VWS V14.01,2013-07-02 12:21:00,
2013-07-02 08:22:00,66.6,63.9,30.14,ENE,58,0.0,9.0,91,0.00,,---,0.00,VWS V14.01,2013-07-02 12:22:00,
2013-07-02 08:23:00,66.6,63.9,30.14,NW,323,0.0,9.0,91,0.00,,---,0.00,VWS V14.01,2013-07-02 12:23:00,
2013-07-02 08:25:00,66.3,63.9,30.14,NW,314,0.0,9.0,92,0.00,,---,0.00,VWS V14.01,2013-07-02 12:25:00,
2013-07-02 08:27:00,66.2,63.8,30.14,WNW,293,3.0,9.0,92,0.00,,---,0.00,VWS V14.01,2013-07-02 12:27:00,
2013-07-02 08:29:00,65.9,63.5,30.14,NW,319,3.0,3.0,92,0.00,,---,0.00,VWS V14.01,2013-07-02 12:29:00,
2013-07-02 08:30:00,65.8,63.4,30.14,NNW,328,3.0,4.0,92,0.00,,---,0.00,VWS V14.01,2013-07-02 12:30:00,
2013-07-02 08:32:00,65.5,63.1,30.14,NNW,345,1.0,5.0,92,0.00,,---,0.00,VWS V14.01,2013-07-02 12:32:00,
2013-07-02 08:34:00,65.2,62.8,30.14,East,86,2.0,5.0,92,0.00,,---,0.00,VWS V14.01,2013-07-02 12:34:00,
2013-07-02 08:35:00,65.1,62.7,30.14,East,84,2.0,5.0,92,0.00,,---,0.00,VWS V14.01,2013-07-02 12:35:00,
2013-07-02 08:36:00,65.1,62.7,30.14,NE,53,3.0,6.0,92,0.00,,---,0.00,VWS V14.01,2013-07-02 12:36:00,
2013-07-02 08:37:00,65.0,62.6,30.14,North,349,3.0,6.0,92,0.00,,---,0.00,VWS V14.01,2013-07-02 12:37:00,
2013-07-02 08:38:00,64.9,62.5,30.14,North,6,1.0,6.0,92,0.00,,---,0.00,VWS V14.01,2013-07-02 12:38:00,
2013-07-02 08:40:00,64.8,62.4,30.14,ENE,60,2.0,6.0,92,0.00,,---,0.00,VWS V14.01,2013-07-02 12:40:00,
2013-07-02 08:41:00,64.8,62.4,30.14,NNW,344,1.0,6.0,92,0.00,,---,0.00,VWS V14.01,2013-07-02 12:41:00,
2013-07-02 08:42:00,64.7,62.3,30.14,NW,323,2.0,6.0,92,0.00,,---,0.00,VWS V14.01,2013-07-02 12:42:00,
2013-07-02 08:44:00,64.6,62.2,30.14,ENE,63,1.0,6.0,92,0.00,,---,0.00,VWS V14.01,2013-07-02 12:44:00,
2013-07-02 08:46:00,64.4,62.0,30.14,East,86,1.0,6.0,92,0.00,,---,0.00,VWS V14.01,2013-07-02 12:46:00,
2013-07-02 08:47:00,64.4,62.0,30.14,NE,49,1.0,6.0,92,0.00,,---,0.00,VWS V14.01,2013-07-02 12:47:00,
2013-07-02 08:49:00,64.4,62.3,30.15,North,352,0.0,6.0,93,0.00,,---,0.00,VWS V14.01,2013-07-02 12:49:00,
2013-07-02 08:50:00,64.4,62.3,30.15,East,80,3.0,6.0,93,0.00,,---,0.00,VWS V14.01,2013-07-02 12:50:00,
2013-07-02 08:52:00,64.3,62.2,30.15,NNE,21,1.0,7.0,93,0.00,,---,0.00,VWS V14.01,2013-07-02 12:52:00,
2013-07-02 08:53:00,64.3,62.2,30.15,NNE,30,3.0,7.0,93,0.00,,---,0.00,VWS V14.01,2013-07-02 12:53:00,
2013-07-02 08:54:00,64.3,61.9,30.15,NE,45,4.0,7.0,92,0.00,,---,0.00,VWS V14.01,2013-07-02 12:54:00,
2013-07-02 08:56:00,64.1,61.7,30.15,NE,53,3.0,7.0,92,0.00,,---,0.00,VWS V14.01,2013-07-02 12:56:00,
2013-07-02 08:58:00,64.0,61.6,30.15,ENE,65,2.0,7.0,92,0.00,,---,0.00,VWS V14.01,2013-07-02 12:58:00,
2013-07-02 08:59:00,64.0,61.6,30.15,WNW,285,1.0,2.0,92,0.00,,---,0.00,VWS V14.01,2013-07-02 12:59:00,
2013-07-02 09:00:00,63.8,61.4,30.15,North,349,5.0,9.0,92,0.00,,---,0.00,VWS V14.01,2013-07-02 13:00:00,
2013-07-02 09:02:00,63.7,61.3,30.15,ENE,66,5.0,9.0,92,0.00,,---,0.00,VWS V14.01,2013-07-02 13:02:00,
2013-07-02 09:03:00,63.5,61.1,30.15,NNW,335,2.0,9.0,92,0.00,,---,0.00,VWS V14.01,2013-07-02 13:03:00,
2013-07-02 09:04:00,63.5,61.1,30.15,NNE,33,2.0,9.0,92,0.00,,---,0.00,VWS V14.01,2013-07-02 13:04:00,
2013-07-02 09:07:00,63.3,60.9,30.15,ENE,58,2.0,10.0,92,0.00,,---,0.00,VWS V14.01,2013-07-02 13:07:00,
2013-07-02 09:08:00,63.3,60.9,30.15,East,91,1.0,10.0,92,0.00,,---,0.00,VWS V14.01,2013-07-02 13:08:00,
2013-07-02 09:09:00,63.2,60.8,30.15,NE,41,2.0,10.0,92,0.00,,---,0.00,VWS V14.01,2013-07-02 13:09:00,
2013-07-02 09:12:00,63.1,60.7,30.15,ENE,58,2.0,10.0,92,0.00,,---,0.00,VWS V14.01,2013-07-02 13:12:00,
2013-07-02 09:13:00,63.0,60.6,30.15,NNW,343,4.0,10.0,92,0.00,,---,0.00,VWS V14.01,2013-07-02 13:13:00,
2013-07-02 09:15:00,62.9,60.8,30.15,North,8,1.0,10.0,93,0.00,,---,0.00,VWS V14.01,2013-07-02 13:15:00,
2013-07-02 09:16:00,62.9,60.8,30.15,ESE,119,1.0,10.0,93,0.00,,---,0.00,VWS V14.01,2013-07-02 13:16:00,
2013-07-02 09:17:00,62.8,60.8,30.15,East,85,2.0,10.0,93,0.00,,---,0.00,VWS V14.01,2013-07-02 13:17:00,
2013-07-02 09:18:00,62.8,60.8,30.15,NE,43,2.0,10.0,93,0.00,,---,0.00,VWS V14.01,2013-07-02 13:18:00,
2013-07-02 09:20:00,62.9,60.8,30.15,NW,314,1.0,10.0,93,0.00,,---,0.00,VWS V14.01,2013-07-02 13:20:00,
2013-07-02 09:21:00,62.8,60.8,30.15,North,360,1.0,10.0,93,0.00,,---,0.00,VWS V14.01,2013-07-02 13:21:00,
2013-07-02 09:23:00,62.8,60.8,30.15,North,360,3.0,10.0,93,0.00,,---,0.00,VWS V14.01,2013-07-02 13:23:00,
2013-07-02 09:24:00,62.8,60.8,30.15,West,278,4.0,10.0,93,0.00,,---,0.00,VWS V14.01,2013-07-02 13:24:00,
2013-07-02 09:25:00,62.6,60.2,30.15,ENE,74,3.0,10.0,92,0.00,,---,0.00,VWS V14.01,2013-07-02 13:25:00,
2013-07-02 09:28:00,62.4,60.0,30.15,ENE,62,3.0,10.0,92,0.00,,---,0.00,VWS V14.01,2013-07-02 13:28:00,
2013-07-02 09:29:00,62.4,60.3,30.15,NW,308,2.0,4.0,93,0.00,,---,0.00,VWS V14.01,2013-07-02 13:29:00,
2013-07-02 09:30:00,62.4,60.0,30.15,NE,45,4.0,6.0,92,0.00,,---,0.00,VWS V14.01,2013-07-02 13:30:00,
2013-07-02 09:32:00,62.3,60.2,30.15,ENE,60,3.0,6.0,93,0.00,,---,0.00,VWS V14.01,2013-07-02 13:32:00,
2013-07-02 09:34:00,62.1,60.1,30.15,NNE,27,5.0,8.0,93,0.00,,---,0.00,VWS V14.01,2013-07-02 13:34:00,
2013-07-02 09:35:00,62.0,60.0,30.15,North,360,2.0,8.0,93,0.00,,---,0.00,VWS V14.01,2013-07-02 13:35:00,
2013-07-02 09:38:00,61.9,59.9,30.15,NNW,335,1.0,8.0,93,0.00,,---,0.00,VWS V14.01,2013-07-02 13:38:00,
2013-07-02 09:40:00,61.8,59.8,30.15,ENE,65,2.0,8.0,93,0.00,,---,0.00,VWS V14.01,2013-07-02 13:40:00,
2013-07-02 09:41:00,61.7,59.7,30.15,East,87,2.0,8.0,93,0.00,,---,0.00,VWS V14.01,2013-07-02 13:41:00,
2013-07-02 09:44:00,61.6,59.9,30.15,NNW,335,3.0,8.0,94,0.01,,---,0.01,VWS V14.01,2013-07-02 13:44:00,
2013-07-02 09:45:00,61.5,59.8,30.15,ENE,60,2.0,8.0,94,0.01,,---,0.01,VWS V14.01,2013-07-02 13:45:00,
2013-07-02 09:46:00,61.5,59.8,30.15,NE,46,2.0,8.0,94,0.01,,---,0.01,VWS V14.01,2013-07-02 13:46:00,
2013-07-02 09:51:00,61.4,59.7,30.15,West,277,0.0,8.0,94,0.01,,---,0.01,VWS V14.01,2013-07-02 13:51:00,
2013-07-02 09:53:00,61.4,60.0,30.15,East,101,1.0,8.0,95,0.02,,---,0.02,VWS V14.01,2013-07-02 13:53:00,
2013-07-02 09:56:00,61.4,60.0,30.15,NE,51,1.0,8.0,95,0.02,,---,0.02,VWS V14.01,2013-07-02 13:56:00,
2013-07-02 09:57:00,61.4,60.0,30.15,NE,47,0.0,8.0,95,0.02,,---,0.02,VWS V14.01,2013-07-02 13:57:00,
2013-07-02 09:59:00,61.4,60.0,30.15,NNE,14,1.0,3.0,95,0.02,,---,0.02,VWS V14.01,2013-07-02 13:59:00,
2013-07-02 10:02:00,61.4,60.0,30.15,NNW,337,2.0,3.0,95,0.02,,---,0.02,VWS V14.01,2013-07-02 14:02:00,
2013-07-02 10:04:00,61.3,59.9,30.15,NE,49,3.0,7.0,95,0.02,,---,0.02,VWS V14.01,2013-07-02 14:04:00,
2013-07-02 10:07:00,61.2,59.8,30.16,NNW,348,1.0,7.0,95,0.02,,---,0.02,VWS V14.01,2013-07-02 14:07:00,
2013-07-02 10:08:00,61.2,59.8,30.15,ENE,68,1.0,7.0,95,0.02,,---,0.02,VWS V14.01,2013-07-02 14:08:00,
2013-07-02 10:09:00,61.1,59.7,30.16,ENE,57,5.0,7.0,95,0.02,,---,0.02,VWS V14.01,2013-07-02 14:09:00,
2013-07-02 10:10:00,61.1,59.7,30.16,NE,44,0.0,7.0,95,0.02,,---,0.02,VWS V14.01,2013-07-02 14:10:00,
2013-07-02 10:12:00,61.1,59.7,30.16,NNE,27,3.0,7.0,95,0.02,,---,0.02,VWS V14.01,2013-07-02 14:12:00,
2013-07-02 10:13:00,61.1,59.7,30.16,NNE,27,2.0,7.0,95,0.02,,---,0.02,VWS V14.01,2013-07-02 14:13:00,
2013-07-02 10:14:00,61.1,59.7,30.17,NNE,15,2.0,7.0,95,0.02,,---,0.02,VWS V14.01,2013-07-02 14:14:00,
2013-07-02 10:15:00,61.1,59.7,30.16,NNE,18,2.0,7.0,95,0.02,,---,0.02,VWS V14.01,2013-07-02 14:15:00,
2013-07-02 10:18:00,61.0,59.6,30.17,NE,51,2.0,7.0,95,0.03,,---,0.03,VWS V14.01,2013-07-02 14:18:00,
2013-07-02 10:19:00,61.0,59.6,30.17,East,94,1.0,7.0,95,0.03,,---,0.03,VWS V14.01,2013-07-02 14:19:00,
2013-07-02 10:20:00,61.1,60.0,30.17,NNW,339,2.0,7.0,96,0.03,,---,0.03,VWS V14.01,2013-07-02 14:20:00,
2013-07-02 10:21:00,61.1,60.0,30.17,NW,316,0.0,7.0,96,0.03,,---,0.03,VWS V14.01,2013-07-02 14:21:00,
2013-07-02 10:24:00,61.0,59.9,30.17,NW,324,2.0,7.0,96,0.03,,---,0.03,VWS V14.01,2013-07-02 14:24:00,
2013-07-02 10:25:00,61.0,59.9,30.17,NE,56,2.0,7.0,96,0.03,,---,0.03,VWS V14.01,2013-07-02 14:25:00,
2013-07-02 10:27:00,61.0,59.9,30.17,NE,44,3.0,7.0,96,0.03,,---,0.03,VWS V14.01,2013-07-02 14:27:00,
2013-07-02 10:28:00,60.9,59.5,30.17,NE,47,2.0,7.0,95,0.03,,---,0.03,VWS V14.01,2013-07-02 14:28:00,
2013-07-02 10:29:00,60.9,59.5,30.17,ENE,58,3.0,3.0,95,0.03,,---,0.03,VWS V14.01,2013-07-02 14:29:00,
2013-07-02 10:30:00,60.9,59.8,30.17,NE,34,3.0,3.0,96,0.03,,---,0.03,VWS V14.01,2013-07-02 14:30:00,
2013-07-02 10:31:00,60.9,59.8,30.17,North,4,3.0,4.0,96,0.03,,---,0.03,VWS V14.01,2013-07-02 14:31:00,
2013-07-02 10:34:00,60.8,59.4,30.17,NNW,342,4.0,5.0,95,0.03,,---,0.03,VWS V14.01,2013-07-02 14:34:00,
2013-07-02 10:35:00,60.8,59.4,30.17,NNE,25,3.0,5.0,95,0.03,,---,0.03,VWS V14.01,2013-07-02 14:35:00,
2013-07-02 10:36:00,60.8,59.4,30.17,NE,46,4.0,5.0,95,0.03,,---,0.03,VWS V14.01,2013-07-02 14:36:00,
2013-07-02 10:37:00,60.8,59.4,30.17,NE,53,2.0,8.0,95,0.03,,---,0.03,VWS V14.01,2013-07-02 14:37:00,
2013-07-02 10:39:00,60.8,59.7,30.17,NW,321,1.0,8.0,96,0.03,,---,0.03,VWS V14.01,2013-07-02 14:39:00,
2013-07-02 10:40:00,60.8,59.7,30.17,ENE,63,2.0,8.0,96,0.03,,---,0.03,VWS V14.01,2013-07-02 14:40:00,
2013-07-02 10:41:00,60.8,59.7,30.17,ENE,71,3.0,8.0,96,0.03,,---,0.03,VWS V14.01,2013-07-02 14:41:00,
2013-07-02 10:42:00,60.8,59.7,30.17,East,92,5.0,8.0,96,0.03,,---,0.03,VWS V14.01,2013-07-02 14:42:00,
2013-07-02 10:44:00,60.9,59.8,30.17,WNW,283,1.0,8.0,96,0.03,,---,0.03,VWS V14.01,2013-07-02 14:44:00,
2013-07-02 10:45:00,60.9,59.8,30.17,NE,49,1.0,8.0,96,0.03,,---,0.03,VWS V14.01,2013-07-02 14:45:00,
2013-07-02 10:47:00,60.9,59.8,30.17,ENE,63,1.0,8.0,96,0.03,,---,0.03,VWS V14.01,2013-07-02 14:47:00,
2013-07-02 10:48:00,61.0,59.9,30.17,ENE,60,1.0,8.0,96,0.03,,---,0.03,VWS V14.01,2013-07-02 14:48:00,
2013-07-02 10:49:00,60.9,59.8,30.17,ENE,73,2.0,8.0,96,0.03,,---,0.03,VWS V14.01,2013-07-02 14:49:00,
2013-07-02 10:52:00,60.9,59.8,30.17,NNE,25,2.0,8.0,96,0.03,,---,0.03,VWS V14.01,2013-07-02 14:52:00,
2013-07-02 10:53:00,60.9,59.8,30.17,East,83,1.0,8.0,96,0.03,,---,0.03,VWS V14.01,2013-07-02 14:53:00,
2013-07-02 10:54:00,60.9,59.8,30.17,NE,34,2.0,8.0,96,0.03,,---,0.03,VWS V14.01,2013-07-02 14:54:00,
2013-07-02 10:55:00,60.8,59.7,30.17,NE,43,3.0,8.0,96,0.04,,---,0.04,VWS V14.01,2013-07-02 14:55:00,
2013-07-02 10:58:00,60.8,59.7,30.17,NNW,344,2.0,8.0,96,0.05,,---,0.05,VWS V14.01,2013-07-02 14:58:00,
2013-07-02 10:59:00,60.8,59.7,30.17,NE,49,0.0,2.0,96,0.04,,---,0.06,VWS V14.01,2013-07-02 14:59:00,
2013-07-02 11:01:00,60.9,59.8,30.17,East,89,1.0,3.0,96,0.05,,---,0.07,VWS V14.01,2013-07-02 15:01:00,
2013-07-02 11:04:00,60.9,59.8,30.17,NNE,28,2.0,7.0,96,0.08,,---,0.10,VWS V14.01,2013-07-02 15:04:00,
2013-07-02 11:05:00,60.9,59.8,30.17,NNE,30,0.0,7.0,96,0.08,,---,0.10,VWS V14.01,2013-07-02 15:05:00,
2013-07-02 11:06:00,60.9,59.8,30.17,ENE,78,2.0,7.0,96,0.09,,---,0.11,VWS V14.01,2013-07-02 15:06:00,
2013-07-02 11:09:00,60.8,59.7,30.17,NE,51,1.0,7.0,96,0.09,,---,0.11,VWS V14.01,2013-07-02 15:09:00,
2013-07-02 11:10:00,60.8,59.7,30.17,WNW,290,1.0,7.0,96,0.09,,---,0.11,VWS V14.01,2013-07-02 15:10:00,
2013-07-02 11:11:00,60.8,59.7,30.17,NW,316,3.0,7.0,96,0.09,,---,0.11,VWS V14.01,2013-07-02 15:11:00,
2013-07-02 11:12:00,60.8,59.7,30.17,NE,35,1.0,7.0,96,0.09,,---,0.11,VWS V14.01,2013-07-02 15:12:00,
2013-07-02 11:14:00,60.8,59.7,30.18,East,85,0.0,7.0,96,0.09,,---,0.11,VWS V14.01,2013-07-02 15:14:00,
2013-07-02 11:16:00,60.9,59.8,30.18,NE,52,2.0,7.0,96,0.09,,---,0.11,VWS V14.01,2013-07-02 15:16:00,
2013-07-02 11:17:00,60.9,59.8,30.18,North,354,1.0,7.0,96,0.09,,---,0.11,VWS V14.01,2013-07-02 15:17:00,
2013-07-02 11:18:00,60.9,59.8,30.18,North,7,1.0,7.0,96,0.09,,---,0.11,VWS V14.01,2013-07-02 15:18:00,
2013-07-02 11:19:00,60.9,59.8,30.17,NW,314,1.0,7.0,96,0.09,,---,0.11,VWS V14.01,2013-07-02 15:19:00,
2013-07-02 11:22:00,60.9,59.8,30.17,ENE,70,3.0,7.0,96,0.09,,---,0.11,VWS V14.01,2013-07-02 15:22:00,
2013-07-02 11:24:00,60.9,59.8,30.17,NNE,30,2.0,7.0,96,0.09,,---,0.11,VWS V14.01,2013-07-02 15:24:00,
2013-07-02 11:25:00,60.9,59.8,30.17,ENE,71,4.0,7.0,96,0.09,,---,0.11,VWS V14.01,2013-07-02 15:25:00,
2013-07-02 11:27:00,60.9,59.8,30.17,NE,50,0.0,7.0,96,0.09,,---,0.11,VWS V14.01,2013-07-02 15:27:00,
2013-07-02 11:29:00,61.0,59.9,30.17,ENE,72,3.0,4.0,96,0.08,,---,0.11,VWS V14.01,2013-07-02 15:29:00,
2013-07-02 11:30:00,61.0,59.9,30.17,NW,311,2.0,4.0,96,0.08,,---,0.11,VWS V14.01,2013-07-02 15:30:00,
2013-07-02 11:32:00,61.1,60.0,30.17,NNE,27,1.0,4.0,96,0.08,,---,0.11,VWS V14.01,2013-07-02 15:32:00,
2013-07-02 11:33:00,61.2,60.0,30.17,North,11,1.0,4.0,96,0.08,,---,0.11,VWS V14.01,2013-07-02 15:33:00,
2013-07-02 11:35:00,61.3,60.4,30.17,NNE,27,1.0,4.0,97,0.08,,---,0.11,VWS V14.01,2013-07-02 15:35:00,
2013-07-02 11:36:00,61.3,60.4,30.17,NE,40,3.0,4.0,97,0.08,,---,0.11,VWS V14.01,2013-07-02 15:36:00,
2013-07-02 11:37:00,61.3,60.2,30.17,NW,322,1.0,4.0,96,0.08,,---,0.11,VWS V14.01,2013-07-02 15:37:00,
2013-07-02 11:38:00,61.3,60.2,30.17,NNE,12,4.0,4.0,96,0.08,,---,0.11,VWS V14.01,2013-07-02 15:38:00,
2013-07-02 11:39:00,61.3,60.2,30.17,NE,52,2.0,4.0,96,0.08,,---,0.11,VWS V14.01,2013-07-02 15:39:00,
2013-07-02 11:41:00,61.4,60.2,30.17,NE,56,1.0,4.0,96,0.08,,---,0.11,VWS V14.01,2013-07-02 15:41:00,
2013-07-02 11:42:00,61.4,60.2,30.17,NNE,31,1.0,4.0,96,0.08,,---,0.11,VWS V14.01,2013-07-02 15:42:00,
2013-07-02 11:43:00,61.4,60.2,30.17,NNE,30,1.0,4.0,96,0.08,,---,0.11,VWS V14.01,2013-07-02 15:43:00,
2013-07-02 11:44:00,61.5,60.3,30.17,NE,35,1.0,4.0,96,0.08,,---,0.11,VWS V14.01,2013-07-02 15:44:00,
2013-07-02 11:45:00,61.5,60.3,30.17,NNE,25,3.0,4.0,96,0.08,,---,0.11,VWS V14.01,2013-07-02 15:45:00,
2013-07-02 11:47:00,61.5,60.3,30.17,NE,35,1.0,4.0,96,0.08,,---,0.11,VWS V14.01,2013-07-02 15:47:00,
2013-07-02 11:48:00,61.6,60.5,30.17,NNE,15,0.0,4.0,96,0.08,,---,0.11,VWS V14.01,2013-07-02 15:48:00,
2013-07-02 11:49:00,61.6,60.5,30.17,WNW,295,2.0,4.0,96,0.08,,---,0.11,VWS V14.01,2013-07-02 15:49:00,
2013-07-02 11:51:00,61.6,60.5,30.17,NNE,25,2.0,4.0,96,0.08,,---,0.11,VWS V14.01,2013-07-02 15:51:00,
2013-07-02 11:52:00,61.6,60.5,30.17,NNW,335,0.0,4.0,96,0.08,,---,0.11,VWS V14.01,2013-07-02 15:52:00,
2013-07-02 11:53:00,61.6,60.5,30.17,NE,55,2.0,4.0,96,0.08,,---,0.11,VWS V14.01,2013-07-02 15:53:00,
2013-07-02 11:54:00,61.6,60.5,30.17,NE,38,2.0,4.0,96,0.08,,---,0.11,VWS V14.01,2013-07-02 15:54:00,
2013-07-02 11:56:00,61.5,60.1,30.17,NE,46,1.0,4.0,95,0.08,,---,0.11,VWS V14.01,2013-07-02 15:56:00,
2013-07-02 11:57:00,61.6,60.2,30.17,East,80,1.0,4.0,95,0.08,,---,0.11,VWS V14.01,2013-07-02 15:57:00,
2013-07-02 12:00:00,61.6,60.2,30.17,NNE,27,2.0,3.0,95,0.06,,---,0.11,VWS V14.01,2013-07-02 16:00:00,
2013-07-02 12:01:00,61.6,60.2,30.17,ENE,57,2.0,3.0,95,0.06,,---,0.11,VWS V14.01,2013-07-02 16:01:00,
2013-07-02 12:02:00,61.6,60.2,30.17,North,11,1.0,3.0,95,0.06,,---,0.11,VWS V14.01,2013-07-02 16:02:00,
2013-07-02 12:03:00,61.7,60.3,30.17,ENE,72,3.0,5.0,95,0.06,,---,0.11,VWS V14.01,2013-07-02 16:03:00,
2013-07-02 12:06:00,61.8,60.4,30.17,NNE,12,0.0,6.0,95,0.06,,---,0.11,VWS V14.01,2013-07-02 16:06:00,
2013-07-02 12:07:00,61.8,60.7,30.17,NNE,13,0.0,6.0,96,0.06,,---,0.11,VWS V14.01,2013-07-02 16:07:00,
2013-07-02 12:08:00,61.9,60.8,30.17,ENE,60,1.0,6.0,96,0.06,,---,0.11,VWS V14.01,2013-07-02 16:08:00,
2013-07-02 12:10:00,62.0,60.8,30.17,NE,44,0.0,6.0,96,0.06,,---,0.11,VWS V14.01,2013-07-02 16:10:00,
2013-07-02 12:12:00,62.1,61.0,30.17,NNW,330,2.0,6.0,96,0.06,,---,0.11,VWS V14.01,2013-07-02 16:12:00,
2013-07-02 12:13:00,62.1,60.7,30.17,NNW,330,2.0,6.0,95,0.06,,---,0.11,VWS V14.01,2013-07-02 16:13:00,
2013-07-02 12:15:00,62.2,61.0,30.17,East,79,1.0,6.0,96,0.07,,---,0.12,VWS V14.01,2013-07-02 16:15:00,
2013-07-02 12:17:00,62.3,61.2,30.17,ENE,60,1.0,6.0,96,0.09,,---,0.14,VWS V14.01,2013-07-02 16:17:00,
2013-07-02 12:18:00,62.3,60.8,30.17,North,9,0.0,6.0,95,0.09,,---,0.14,VWS V14.01,2013-07-02 16:18:00,
2013-07-02 12:19:00,62.3,60.8,30.17,NE,51,0.0,6.0,95,0.09,,---,0.14,VWS V14.01,2013-07-02 16:19:00,
2013-07-02 12:21:00,62.2,60.8,30.17,SSE,156,0.0,6.0,95,0.09,,---,0.14,VWS V14.01,2013-07-02 16:21:00,
2013-07-02 12:23:00,62.2,60.8,30.17,NE,50,1.0,6.0,95,0.10,,---,0.15,VWS V14.01,2013-07-02 16:23:00,
2013-07-02 12:25:00,62.1,60.7,30.18,ENE,60,2.0,6.0,95,0.10,,---,0.15,VWS V14.01,2013-07-02 16:25:00,
2013-07-02 12:26:00,62.1,60.7,30.17,NE,37,2.0,6.0,95,0.10,,---,0.15,VWS V14.01,2013-07-02 16:26:00,
2013-07-02 12:30:00,62.0,60.6,30.18,NNW,329,1.0,3.0,95,0.04,,---,0.15,VWS V14.01,2013-07-02 16:30:00,
2013-07-02 12:31:00,62.0,60.6,30.18,NW,311,0.0,3.0,95,0.04,,---,0.15,VWS V14.01,2013-07-02 16:31:00,
2013-07-02 12:32:00,62.0,60.8,30.18,ENE,69,0.0,3.0,96,0.04,,---,0.15,VWS V14.01,2013-07-02 16:32:00,
2013-07-02 12:36:00,62.1,61.0,30.17,NE,45,1.0,3.0,96,0.04,,---,0.15,VWS V14.01,2013-07-02 16:36:00,
2013-07-02 12:37:00,62.1,61.0,30.18,ENE,58,2.0,3.0,96,0.04,,---,0.15,VWS V14.01,2013-07-02 16:37:00,
2013-07-02 12:38:00,62.1,61.0,30.17,East,94,2.0,3.0,96,0.04,,---,0.15,VWS V14.01,2013-07-02 16:38:00,
2013-07-02 12:39:00,62.1,61.0,30.17,NE,49,3.0,6.0,96,0.04,,---,0.15,VWS V14.01,2013-07-02 16:39:00,
2013-07-02 12:41:00,62.1,60.7,30.18,East,79,5.0,6.0,95,0.04,,---,0.15,VWS V14.01,2013-07-02 16:41:00,
2013-07-02 12:42:00,62.0,60.6,30.18,NE,41,3.0,6.0,95,0.04,,---,0.15,VWS V14.01,2013-07-02 16:42:00,
2013-07-02 12:44:00,62.0,60.6,30.18,ENE,65,2.0,6.0,95,0.04,,---,0.15,VWS V14.01,2013-07-02 16:44:00,
2013-07-02 12:46:00,62.0,60.6,30.18,NE,51,1.0,6.0,95,0.04,,---,0.15,VWS V14.01,2013-07-02 16:46:00,
2013-07-02 12:49:00,62.0,60.6,30.18,NE,49,2.0,6.0,95,0.04,,---,0.15,VWS V14.01,2013-07-02 16:49:00,
2013-07-02 12:50:00,62.0,60.6,30.18,ENE,62,4.0,6.0,95,0.04,,---,0.15,VWS V14.01,2013-07-02 16:50:00,
2013-07-02 12:52:00,62.0,60.6,30.18,ENE,65,1.0,6.0,95,0.04,,---,0.15,VWS V14.01,2013-07-02 16:52:00,
2013-07-02 12:54:00,62.0,60.6,30.18,ENE,60,3.0,6.0,95,0.04,,---,0.15,VWS V14.01,2013-07-02 16:54:00,
2013-07-02 12:55:00,61.9,60.5,30.18,East,83,5.0,6.0,95,0.04,,---,0.15,VWS V14.01,2013-07-02 16:55:00,
2013-07-02 12:56:00,61.9,60.5,30.18,ENE,65,2.0,6.0,95,0.04,,---,0.15,VWS V14.01,2013-07-02 16:56:00,
2013-07-02 12:57:00,62.0,60.8,30.18,NE,49,5.0,6.0,96,0.04,,---,0.15,VWS V14.01,2013-07-02 16:57:00,
2013-07-02 13:00:00,62.0,60.8,30.18,WNW,286,0.0,1.0,96,0.04,,---,0.15,VWS V14.01,2013-07-02 17:00:00,
2013-07-02 13:02:00,62.0,60.8,30.18,ENE,62,1.0,3.0,96,0.04,,---,0.15,VWS V14.01,2013-07-02 17:02:00,
2013-07-02 13:03:00,62.0,60.6,30.18,NNE,21,2.0,3.0,95,0.04,,---,0.15,VWS V14.01,2013-07-02 17:03:00,
2013-07-02 13:05:00,62.1,61.0,30.18,NW,326,2.0,4.0,96,0.04,,---,0.15,VWS V14.01,2013-07-02 17:05:00,
2013-07-02 13:07:00,62.0,60.6,30.18,NE,39,2.0,4.0,95,0.04,,---,0.15,VWS V14.01,2013-07-02 17:07:00,
2013-07-02 13:09:00,62.0,60.6,30.18,NE,41,0.0,4.0,95,0.04,,---,0.15,VWS V14.01,2013-07-02 17:09:00,
2013-07-02 13:10:00,62.0,60.6,30.18,NE,43,1.0,4.0,95,0.04,,---,0.15,VWS V14.01,2013-07-02 17:10:00,
2013-07-02 13:11:00,62.0,60.6,30.18,NW,321,1.0,4.0,95,0.04,,---,0.15,VWS V14.01,2013-07-02 17:11:00,
2013-07-02 13:13:00,62.1,61.0,30.18,NNE,25,1.0,4.0,96,0.04,,---,0.15,VWS V14.01,2013-07-02 17:13:00,
2013-07-02 13:14:00,62.1,61.0,30.18,NE,51,2.0,4.0,96,0.04,,---,0.15,VWS V14.01,2013-07-02 17:14:00,
2013-07-02 13:15:00,62.2,61.0,30.18,SW,231,1.0,4.0,96,0.04,,---,0.15,VWS V14.01,2013-07-02 17:15:00,
2013-07-02 13:16:00,62.2,60.8,30.17,NE,53,1.0,4.0,95,0.04,,---,0.15,VWS V14.01,2013-07-02 17:16:00,
2013-07-02 13:17:00,62.2,61.0,30.17,ENE,63,1.0,4.0,96,0.04,,---,0.15,VWS V14.01,2013-07-02 17:17:00,
2013-07-02 13:18:00,62.2,61.0,30.17,ENE,60,4.0,4.0,96,0.04,,---,0.15,VWS V14.01,2013-07-02 17:18:00,
2013-07-02 13:20:00,62.2,60.8,30.17,ENE,65,2.0,5.0,95,0.04,,---,0.15,VWS V14.01,2013-07-02 17:20:00,
2013-07-02 13:21:00,62.2,60.8,30.17,NE,43,2.0,5.0,95,0.04,,---,0.15,VWS V14.01,2013-07-02 17:21:00,
2013-07-02 13:23:00,62.3,60.8,30.17,ENE,61,4.0,6.0,95,0.04,,---,0.15,VWS V14.01,2013-07-02 17:23:00,
2013-07-02 13:24:00,62.3,60.8,30.17,NE,37,2.0,6.0,95,0.04,,---,0.15,VWS V14.01,2013-07-02 17:24:00,
2013-07-02 13:25:00,62.4,61.0,30.17,NE,36,1.0,6.0,95,0.04,,---,0.15,VWS V14.01,2013-07-02 17:25:00,
2013-07-02 13:26:00,62.4,61.2,30.17,NE,40,2.0,6.0,96,0.04,,---,0.15,VWS V14.01,2013-07-02 17:26:00,
2013-07-02 13:28:00,62.5,61.0,30.17,NE,49,0.0,4.0,95,0.00,,---,0.15,VWS V14.01,2013-07-02 17:28:00,
2013-07-02 13:31:00,62.5,61.0,30.17,North,354,1.0,4.0,95,0.00,,---,0.15,VWS V14.01,2013-07-02 17:31:00,
2013-07-02 13:32:00,62.4,61.0,30.17,ENE,62,2.0,4.0,95,0.00,,---,0.15,VWS V14.01,2013-07-02 17:32:00,
2013-07-02 13:34:00,62.4,61.0,30.17,NE,41,2.0,4.0,95,0.00,,---,0.15,VWS V14.01,2013-07-02 17:34:00,
2013-07-02 13:36:00,62.2,60.8,30.17,WNW,301,1.0,4.0,95,0.00,,---,0.15,VWS V14.01,2013-07-02 17:36:00,
2013-07-02 13:37:00,62.2,60.8,30.17,NE,52,2.0,4.0,95,0.00,,---,0.15,VWS V14.01,2013-07-02 17:37:00,
2013-07-02 13:38:00,62.2,60.8,30.17,ENE,68,3.0,5.0,95,0.00,,---,0.15,VWS V14.01,2013-07-02 17:38:00,
2013-07-02 13:39:00,62.3,60.8,30.17,NNE,19,1.0,5.0,95,0.00,,---,0.15,VWS V14.01,2013-07-02 17:39:00,
2013-07-02 13:40:00,62.3,60.8,30.17,NE,46,1.0,5.0,95,0.00,,---,0.15,VWS V14.01,2013-07-02 17:40:00,
2013-07-02 13:42:00,62.4,61.0,30.17,ENE,58,1.0,5.0,95,0.00,,---,0.15,VWS V14.01,2013-07-02 17:42:00,
2013-07-02 13:44:00,62.3,60.8,30.18,NE,43,1.0,5.0,95,0.00,,---,0.15,VWS V14.01,2013-07-02 17:44:00,
2013-07-02 13:45:00,62.3,60.8,30.17,East,95,2.0,5.0,95,0.00,,---,0.15,VWS V14.01,2013-07-02 17:45:00,
2013-07-02 13:46:00,62.3,60.8,30.18,NE,50,1.0,5.0,95,0.00,,---,0.15,VWS V14.01,2013-07-02 17:46:00,
2013-07-02 13:47:00,62.3,60.8,30.18,NNE,28,1.0,5.0,95,0.00,,---,0.15,VWS V14.01,2013-07-02 17:47:00,
2013-07-02 13:50:00,62.3,60.8,30.18,ENE,68,4.0,6.0,95,0.00,,---,0.15,VWS V14.01,2013-07-02 17:50:00,
2013-07-02 13:51:00,62.3,60.6,30.18,WNW,285,1.0,6.0,94,0.00,,---,0.15,VWS V14.01,2013-07-02 17:51:00,
2013-07-02 13:53:00,62.3,60.6,30.18,NE,52,0.0,6.0,94,0.00,,---,0.15,VWS V14.01,2013-07-02 17:53:00,
2013-07-02 13:55:00,62.3,60.8,30.18,NE,41,3.0,6.0,95,0.00,,---,0.15,VWS V14.01,2013-07-02 17:55:00,
2013-07-02 13:56:00,62.3,60.8,30.18,NNE,20,2.0,6.0,95,0.00,,---,0.15,VWS V14.01,2013-07-02 17:56:00,
2013-07-02 13:57:00,62.3,60.6,30.18,NW,319,1.0,6.0,94,0.00,,---,0.15,VWS V14.01,2013-07-02 17:57:00,
2013-07-02 13:58:00,62.4,61.0,30.18,NNE,13,1.0,6.0,95,0.00,,---,0.15,VWS V14.01,2013-07-02 17:58:00,
2013-07-02 14:01:00,62.4,60.7,30.18,NE,55,4.0,5.0,94,0.00,,---,0.15,VWS V14.01,2013-07-02 18:01:00,
2013-07-02 14:03:00,62.3,60.6,30.18,ENE,68,2.0,5.0,94,0.00,,---,0.15,VWS V14.01,2013-07-02 18:03:00,
2013-07-02 14:04:00,62.3,60.6,30.18,NE,51,2.0,5.0,94,0.00,,---,0.15,VWS V14.01,2013-07-02 18:04:00,
2013-07-02 14:06:00,62.4,61.0,30.18,North,360,0.0,5.0,95,0.00,,---,0.15,VWS V14.01,2013-07-02 18:06:00,
2013-07-02 14:08:00,62.4,60.7,30.18,ENE,63,1.0,7.0,94,0.00,,---,0.15,VWS V14.01,2013-07-02 18:08:00,
2013-07-02 14:09:00,62.4,60.7,30.18,NE,49,2.0,7.0,94,0.00,,---,0.15,VWS V14.01,2013-07-02 18:09:00,
2013-07-02 14:11:00,62.4,60.7,30.18,ENE,74,4.0,7.0,94,0.01,,---,0.16,VWS V14.01,2013-07-02 18:11:00,
2013-07-02 14:13:00,62.4,60.7,30.17,NE,49,3.0,7.0,94,0.01,,---,0.16,VWS V14.01,2013-07-02 18:13:00,
2013-07-02 14:14:00,62.4,60.7,30.18,ENE,58,1.0,7.0,94,0.01,,---,0.16,VWS V14.01,2013-07-02 18:14:00,
2013-07-02 14:16:00,62.5,61.0,30.18,North,350,1.0,7.0,95,0.01,,---,0.16,VWS V14.01,2013-07-02 18:16:00,
2013-07-02 14:18:00,62.6,61.2,30.18,North,359,0.0,7.0,95,0.01,,---,0.16,VWS V14.01,2013-07-02 18:18:00,
2013-07-02 14:19:00,62.7,61.2,30.18,NE,45,1.0,7.0,95,0.01,,---,0.16,VWS V14.01,2013-07-02 18:19:00,
2013-07-02 14:20:00,62.7,61.2,30.18,NE,45,0.0,7.0,95,0.01,,---,0.16,VWS V14.01,2013-07-02 18:20:00,
2013-07-02 14:23:00,62.7,61.2,30.18,NNE,22,2.0,7.0,95,0.01,,---,0.16,VWS V14.01,2013-07-02 18:23:00,
2013-07-02 14:24:00,62.6,61.2,30.18,ENE,57,1.0,7.0,95,0.01,,---,0.16,VWS V14.01,2013-07-02 18:24:00,
2013-07-02 14:25:00,62.6,61.2,30.18,NE,55,0.0,7.0,95,0.01,,---,0.16,VWS V14.01,2013-07-02 18:25:00,
2013-07-02 14:28:00,62.6,61.2,30.18,NNE,15,0.0,0.0,95,0.01,,---,0.16,VWS V14.01,2013-07-02 18:28:00,
2013-07-02 14:29:00,62.6,61.2,30.18,NE,56,0.0,2.0,95,0.01,,---,0.16,VWS V14.01,2013-07-02 18:29:00,
2013-07-02 14:31:00,62.5,61.0,30.18,ENE,67,1.0,4.0,95,0.01,,---,0.16,VWS V14.01,2013-07-02 18:31:00,
2013-07-02 14:32:00,62.4,61.0,30.18,NE,34,1.0,4.0,95,0.01,,---,0.16,VWS V14.01,2013-07-02 18:32:00,
2013-07-02 14:33:00,62.4,61.0,30.18,NE,35,2.0,4.0,95,0.01,,---,0.16,VWS V14.01,2013-07-02 18:33:00,
2013-07-02 14:34:00,62.4,61.0,30.18,NE,35,0.0,4.0,95,0.01,,---,0.16,VWS V14.01,2013-07-02 18:34:00,
2013-07-02 14:37:00,62.3,60.8,30.18,ENE,65,2.0,4.0,95,0.01,,---,0.16,VWS V14.01,2013-07-02 18:37:00,
2013-07-02 14:38:00,62.3,60.8,30.18,NE,34,0.0,4.0,95,0.02,,---,0.17,VWS V14.01,2013-07-02 18:38:00,
2013-07-02 14:39:00,62.3,60.8,30.18,NNE,25,0.0,4.0,95,0.03,,---,0.18,VWS V14.01,2013-07-02 18:39:00,
2013-07-02 14:40:00,62.4,61.0,30.18,NNE,25,0.0,4.0,95,0.04,,---,0.19,VWS V14.01,2013-07-02 18:40:00,
2013-07-02 14:42:00,62.5,61.3,30.18,NE,49,0.0,4.0,96,0.05,,---,0.20,VWS V14.01,2013-07-02 18:42:00,
2013-07-02 14:44:00,62.5,61.0,30.18,NE,48,1.0,4.0,95,0.06,,---,0.21,VWS V14.01,2013-07-02 18:44:00,
2013-07-02 14:45:00,62.5,61.0,30.18,ENE,65,3.0,4.0,95,0.06,,---,0.21,VWS V14.01,2013-07-02 18:45:00,
2013-07-02 14:46:00,62.5,61.0,30.18,NE,56,2.0,4.0,95,0.06,,---,0.21,VWS V14.01,2013-07-02 18:46:00,
2013-07-02 14:47:00,62.4,61.0,30.18,NNE,28,1.0,4.0,95,0.06,,---,0.21,VWS V14.01,2013-07-02 18:47:00,
2013-07-02 14:49:00,62.5,61.3,30.18,NE,56,2.0,4.0,96,0.06,,---,0.21,VWS V14.01,2013-07-02 18:49:00,
2013-07-02 14:50:00,62.5,61.0,30.18,ENE,77,3.0,4.0,95,0.06,,---,0.21,VWS V14.01,2013-07-02 18:50:00,
2013-07-02 14:51:00,62.5,61.0,30.17,ENE,64,4.0,5.0,95,0.06,,---,0.21,VWS V14.01,2013-07-02 18:51:00,
2013-07-02 14:52:00,62.4,61.0,30.17,ENE,62,3.0,5.0,95,0.06,,---,0.21,VWS V14.01,2013-07-02 18:52:00,
2013-07-02 14:55:00,62.4,61.0,30.17,ENE,67,4.0,5.0,95,0.07,,---,0.22,VWS V14.01,2013-07-02 18:55:00,
2013-07-02 14:56:00,62.4,61.0,30.17,ENE,58,0.0,5.0,95,0.07,,---,0.22,VWS V14.01,2013-07-02 18:56:00,
2013-07-02 14:57:00,62.4,61.0,30.17,East,84,1.0,5.0,95,0.07,,---,0.22,VWS V14.01,2013-07-02 18:57:00,
2013-07-02 15:00:00,62.6,61.5,30.17,NE,46,2.0,3.0,96,0.07,,---,0.22,VWS V14.01,2013-07-02 19:00:00,
2013-07-02 15:01:00,62.6,61.5,30.17,NNW,346,1.0,3.0,96,0.07,,---,0.22,VWS V14.01,2013-07-02 19:01:00,
2013-07-02 15:02:00,62.7,61.5,30.17,NE,34,1.0,3.0,96,0.07,,---,0.22,VWS V14.01,2013-07-02 19:02:00,
2013-07-02 15:03:00,62.7,61.5,30.17,ENE,60,4.0,4.0,96,0.07,,---,0.22,VWS V14.01,2013-07-02 19:03:00,
2013-07-02 15:06:00,62.8,61.3,30.17,NE,55,1.0,4.0,95,0.07,,---,0.22,VWS V14.01,2013-07-02 19:06:00,
2013-07-02 15:08:00,62.8,61.3,30.17,East,79,4.0,4.0,95,0.07,,---,0.22,VWS V14.01,2013-07-02 19:08:00,
2013-07-02 15:10:00,62.8,61.3,30.17,ENE,57,2.0,5.0,95,0.07,,---,0.22,VWS V14.01,2013-07-02 19:10:00,
2013-07-02 15:11:00,62.8,61.3,30.17,NE,44,3.0,5.0,95,0.07,,---,0.22,VWS V14.01,2013-07-02 19:11:00,
2013-07-02 15:12:00,62.9,61.5,30.17,NE,49,1.0,5.0,95,0.07,,---,0.22,VWS V14.01,2013-07-02 19:12:00,
2013-07-02 15:13:00,62.9,61.5,30.17,ENE,60,4.0,5.0,95,0.07,,---,0.22,VWS V14.01,2013-07-02 19:13:00,
2013-07-02 15:15:00,62.8,61.0,30.17,NE,39,2.0,6.0,94,0.07,,---,0.22,VWS V14.01,2013-07-02 19:15:00,
2013-07-02 15:17:00,62.7,61.0,30.17,NNE,30,1.0,6.0,94,0.07,,---,0.22,VWS V14.01,2013-07-02 19:17:00,
2013-07-02 15:18:00,62.8,61.3,30.17,NE,53,1.0,6.0,95,0.07,,---,0.22,VWS V14.01,2013-07-02 19:18:00,
2013-07-02 15:21:00,62.8,61.3,30.17,NNE,12,0.0,6.0,95,0.07,,---,0.22,VWS V14.01,2013-07-02 19:21:00,
2013-07-02 15:23:00,62.9,61.5,30.17,NE,40,3.0,6.0,95,0.07,,---,0.22,VWS V14.01,2013-07-02 19:23:00,
2013-07-02 15:24:00,62.9,61.2,30.17,NNE,27,2.0,6.0,94,0.07,,---,0.22,VWS V14.01,2013-07-02 19:24:00,
2013-07-02 15:25:00,62.8,61.0,30.17,ENE,75,2.0,6.0,94,0.07,,---,0.22,VWS V14.01,2013-07-02 19:25:00,
2013-07-02 15:28:00,62.7,61.0,30.17,NE,51,5.0,6.0,94,0.07,,---,0.22,VWS V14.01,2013-07-02 19:28:00,
2013-07-02 15:29:00,62.6,60.8,30.17,NE,45,2.0,4.0,94,0.06,,---,0.22,VWS V14.01,2013-07-02 19:29:00,
2013-07-02 15:30:00,62.6,60.8,30.17,ENE,67,2.0,4.0,94,0.06,,---,0.22,VWS V14.01,2013-07-02 19:30:00,
2013-07-02 15:32:00,62.6,60.8,30.17,ENE,78,6.0,6.0,94,0.06,,---,0.22,VWS V14.01,2013-07-02 19:32:00,
2013-07-02 15:33:00,62.6,60.8,30.17,NE,55,4.0,8.0,94,0.06,,---,0.22,VWS V14.01,2013-07-02 19:33:00,
2013-07-02 15:34:00,62.6,60.8,30.17,ENE,58,3.0,8.0,94,0.06,,---,0.22,VWS V14.01,2013-07-02 19:34:00,
2013-07-02 15:36:00,62.6,60.8,30.17,ENE,63,4.0,8.0,94,0.06,,---,0.22,VWS V14.01,2013-07-02 19:36:00,
2013-07-02 15:37:00,62.6,60.8,30.17,NNE,27,4.0,8.0,94,0.06,,---,0.22,VWS V14.01,2013-07-02 19:37:00,
2013-07-02 15:38:00,62.6,60.8,30.17,NE,41,2.0,8.0,94,0.06,,---,0.22,VWS V14.01,2013-07-02 19:38:00,
2013-07-02 15:39:00,62.6,60.8,30.17,ENE,73,2.0,8.0,94,0.06,,---,0.22,VWS V14.01,2013-07-02 19:39:00,
2013-07-02 15:40:00,62.6,60.8,30.17,NE,40,2.0,8.0,94,0.06,,---,0.22,VWS V14.01,2013-07-02 19:40:00,
2013-07-02 15:42:00,62.6,60.8,30.17,ENE,65,1.0,8.0,94,0.06,,---,0.22,VWS V14.01,2013-07-02 19:42:00,
2013-07-02 15:43:00,62.6,60.8,30.17,NNE,16,3.0,8.0,94,0.06,,---,0.22,VWS V14.01,2013-07-02 19:43:00,
2013-07-02 15:44:00,62.6,60.8,30.17,ENE,58,1.0,8.0,94,0.06,,---,0.22,VWS V14.01,2013-07-02 19:44:00,
2013-07-02 15:45:00,62.6,60.8,30.17,NE,46,1.0,8.0,94,0.06,,---,0.22,VWS V14.01,2013-07-02 19:45:00,
2013-07-02 15:47:00,62.6,60.8,30.17,ENE,69,3.0,8.0,94,0.06,,---,0.22,VWS V14.01,2013-07-02 19:47:00,
2013-07-02 15:49:00,62.6,61.2,30.17,NE,40,4.0,8.0,95,0.06,,---,0.22,VWS V14.01,2013-07-02 19:49:00,
2013-07-02 15:50:00,62.6,60.8,30.17,NE,38,2.0,8.0,94,0.06,,---,0.22,VWS V14.01,2013-07-02 19:50:00,
2013-07-02 15:53:00,62.6,60.8,30.17,NE,38,1.0,8.0,94,0.06,,---,0.22,VWS V14.01,2013-07-02 19:53:00,
2013-07-02 15:54:00,62.6,60.8,30.17,NE,50,1.0,8.0,94,0.06,,---,0.22,VWS V14.01,2013-07-02 19:54:00,
2013-07-02 15:56:00,62.6,61.2,30.17,North,356,0.0,8.0,95,0.06,,---,0.22,VWS V14.01,2013-07-02 19:56:00,
2013-07-02 15:57:00,62.6,61.2,30.17,East,85,1.0,8.0,95,0.06,,---,0.22,VWS V14.01,2013-07-02 19:57:00,
2013-07-02 15:59:00,62.7,61.2,30.17,NE,53,0.0,1.0,95,0.00,,---,0.22,VWS V14.01,2013-07-02 19:59:00,
2013-07-02 16:01:00,62.7,61.2,30.17,NNE,12,1.0,3.0,95,0.00,,---,0.22,VWS V14.01,2013-07-02 20:01:00,
2013-07-02 16:02:00,62.7,61.2,30.17,ENE,58,1.0,4.0,95,0.00,,---,0.22,VWS V14.01,2013-07-02 20:02:00,
2013-07-02 16:04:00,62.7,61.2,30.17,NNE,14,0.0,4.0,95,0.00,,---,0.22,VWS V14.01,2013-07-02 20:04:00,
2013-07-02 16:05:00,62.7,61.2,30.17,ENE,63,2.0,4.0,95,0.00,,---,0.22,VWS V14.01,2013-07-02 20:05:00,
2013-07-02 16:07:00,62.7,61.2,30.17,NE,52,0.0,4.0,95,0.00,,---,0.22,VWS V14.01,2013-07-02 20:07:00,
2013-07-02 16:08:00,62.7,61.2,30.17,NNE,32,1.0,4.0,95,0.01,,---,0.23,VWS V14.01,2013-07-02 20:08:00,
2013-07-02 16:09:00,62.7,61.2,30.17,ENE,77,3.0,4.0,95,0.01,,---,0.23,VWS V14.01,2013-07-02 20:09:00,
2013-07-02 16:10:00,62.7,61.2,30.17,NE,44,1.0,4.0,95,0.01,,---,0.23,VWS V14.01,2013-07-02 20:10:00,
2013-07-02 16:12:00,62.6,61.2,30.17,ENE,62,2.0,4.0,95,0.01,,---,0.23,VWS V14.01,2013-07-02 20:12:00,
2013-07-02 16:14:00,62.6,61.2,30.17,ENE,70,0.0,5.0,95,0.01,,---,0.23,VWS V14.01,2013-07-02 20:14:00,
2013-07-02 16:15:00,62.6,61.2,30.17,ENE,70,0.0,5.0,95,0.01,,---,0.23,VWS V14.01,2013-07-02 20:15:00,
2013-07-02 16:17:00,62.7,61.2,30.17,NE,49,2.0,5.0,95,0.01,,---,0.23,VWS V14.01,2013-07-02 20:17:00,
2013-07-02 16:19:00,62.7,61.2,30.18,ENE,58,1.0,5.0,95,0.01,,---,0.23,VWS V14.01,2013-07-02 20:19:00,
2013-07-02 16:20:00,62.6,61.2,30.18,NE,44,1.0,5.0,95,0.01,,---,0.23,VWS V14.01,2013-07-02 20:20:00,
2013-07-02 16:23:00,62.6,61.2,30.18,ENE,59,0.0,5.0,95,0.01,,---,0.23,VWS V14.01,2013-07-02 20:23:00,
2013-07-02 16:24:00,62.6,61.2,30.17,NE,37,1.0,5.0,95,0.01,,---,0.23,VWS V14.01,2013-07-02 20:24:00,
2013-07-02 16:25:00,62.6,61.2,30.17,NNE,25,3.0,5.0,95,0.01,,---,0.23,VWS V14.01,2013-07-02 20:25:00,
2013-07-02 16:26:00,62.6,61.2,30.17,ENE,62,3.0,5.0,95,0.01,,---,0.23,VWS V14.01,2013-07-02 20:26:00,
2013-07-02 16:28:00,62.5,61.0,30.17,NE,47,2.0,4.0,95,0.01,,---,0.23,VWS V14.01,2013-07-02 20:28:00,
2013-07-02 16:30:00,62.5,61.0,30.17,NE,39,0.0,4.0,95,0.01,,---,0.23,VWS V14.01,2013-07-02 20:30:00,
2013-07-02 16:31:00,62.5,61.0,30.17,NE,44,0.0,4.0,95,0.01,,---,0.23,VWS V14.01,2013-07-02 20:31:00,
2013-07-02 16:32:00,62.5,61.0,30.17,NE,44,0.0,4.0,95,0.01,,---,0.23,VWS V14.01,2013-07-02 20:32:00,
2013-07-02 16:35:00,62.5,61.0,30.17,NW,320,2.0,4.0,95,0.01,,---,0.23,VWS V14.01,2013-07-02 20:35:00,
2013-07-02 16:36:00,62.5,61.0,30.17,North,356,1.0,4.0,95,0.01,,---,0.23,VWS V14.01,2013-07-02 20:36:00,
2013-07-02 16:38:00,62.5,61.3,30.17,NNW,338,2.0,4.0,96,0.01,,---,0.23,VWS V14.01,2013-07-02 20:38:00,
2013-07-02 16:40:00,62.4,61.0,30.17,North,354,2.0,4.0,95,0.01,,---,0.23,VWS V14.01,2013-07-02 20:40:00,
2013-07-02 16:41:00,62.4,61.0,30.17,NNW,345,0.0,4.0,95,0.01,,---,0.23,VWS V14.01,2013-07-02 20:41:00,
2013-07-02 16:43:00,62.4,61.2,30.17,North,11,1.0,4.0,96,0.01,,---,0.23,VWS V14.01,2013-07-02 20:43:00,
2013-07-02 16:45:00,62.4,61.2,30.17,East,80,3.0,4.0,96,0.02,,---,0.24,VWS V14.01,2013-07-02 20:45:00,
2013-07-02 16:46:00,62.4,61.2,30.17,East,79,1.0,4.0,96,0.02,,---,0.24,VWS V14.01,2013-07-02 20:46:00,
2013-07-02 16:48:00,62.5,61.3,30.16,ENE,68,3.0,4.0,96,0.02,,---,0.24,VWS V14.01,2013-07-02 20:48:00,
2013-07-02 16:51:00,62.4,61.2,30.16,ENE,68,5.0,6.0,96,0.02,,---,0.24,VWS V14.01,2013-07-02 20:51:00,
2013-07-02 16:52:00,62.3,60.8,30.17,NE,44,3.0,7.0,95,0.02,,---,0.24,VWS V14.01,2013-07-02 20:52:00,
2013-07-02 16:54:00,62.3,60.8,30.17,NE,53,4.0,9.0,95,0.02,,---,0.24,VWS V14.01,2013-07-02 20:54:00,
2013-07-02 16:56:00,62.4,61.0,30.17,NE,37,0.0,9.0,95,0.02,,---,0.24,VWS V14.01,2013-07-02 20:56:00,
2013-07-02 16:57:00,62.4,61.2,30.17,NNW,335,0.0,9.0,96,0.02,,---,0.24,VWS V14.01,2013-07-02 20:57:00,
2013-07-02 16:58:00,62.5,61.3,30.17,NNW,335,0.0,9.0,96,0.02,,---,0.24,VWS V14.01,2013-07-02 20:58:00,
2013-07-02 16:59:00,62.5,61.3,30.17,NNW,335,0.0,0.0,96,0.02,,---,0.24,VWS V14.01,2013-07-02 20:59:00,
2013-07-02 17:01:00,62.5,61.0,30.17,NE,37,1.0,2.0,95,0.02,,---,0.24,VWS V14.01,2013-07-02 21:01:00,
2013-07-02 17:04:00,62.5,61.0,30.17,NE,56,2.0,3.0,95,0.02,,---,0.24,VWS V14.01,2013-07-02 21:04:00,
2013-07-02 17:05:00,62.5,61.3,30.17,East,85,2.0,4.0,96,0.02,,---,0.24,VWS V14.01,2013-07-02 21:05:00,
2013-07-02 17:06:00,62.5,61.3,30.17,ENE,65,5.0,5.0,96,0.02,,---,0.24,VWS V14.01,2013-07-02 21:06:00,
2013-07-02 17:09:00,62.5,61.0,30.17,North,11,1.0,5.0,95,0.02,,---,0.24,VWS V14.01,2013-07-02 21:09:00,
2013-07-02 17:10:00,62.5,61.0,30.17,ESE,117,1.0,5.0,95,0.02,,---,0.24,VWS V14.01,2013-07-02 21:10:00,
2013-07-02 17:12:00,62.5,61.0,30.17,NNE,12,2.0,5.0,95,0.02,,---,0.24,VWS V14.01,2013-07-02 21:12:00,
2013-07-02 17:14:00,62.5,61.0,30.17,NNE,33,1.0,5.0,95,0.02,,---,0.24,VWS V14.01,2013-07-02 21:14:00,
2013-07-02 17:16:00,62.5,61.0,30.17,NE,45,0.0,5.0,95,0.02,,---,0.24,VWS V14.01,2013-07-02 21:16:00,
2013-07-02 17:17:00,62.5,61.0,30.17,NE,34,4.0,5.0,95,0.02,,---,0.24,VWS V14.01,2013-07-02 21:17:00,
2013-07-02 17:19:00,62.4,61.0,30.17,ENE,64,5.0,5.0,95,0.02,,---,0.24,VWS V14.01,2013-07-02 21:19:00,
2013-07-02 17:21:00,62.4,61.0,30.17,ENE,65,2.0,7.0,95,0.02,,---,0.24,VWS V14.01,2013-07-02 21:21:00,
2013-07-02 17:22:00,62.4,61.0,30.17,ENE,69,3.0,7.0,95,0.02,,---,0.24,VWS V14.01,2013-07-02 21:22:00,
2013-07-02 17:23:00,62.4,61.0,30.17,East,83,3.0,7.0,95,0.02,,---,0.24,VWS V14.01,2013-07-02 21:23:00,
2013-07-02 17:24:00,62.5,61.0,30.17,ENE,57,1.0,7.0,95,0.02,,---,0.24,VWS V14.01,2013-07-02 21:24:00,
2013-07-02 17:27:00,62.5,61.0,30.17,ENE,63,2.0,7.0,95,0.02,,---,0.24,VWS V14.01,2013-07-02 21:27:00,
2013-07-02 17:28:00,62.5,61.0,30.17,NE,56,0.0,7.0,95,0.02,,---,0.24,VWS V14.01,2013-07-02 21:28:00,
2013-07-02 17:29:00,62.5,61.0,30.17,ENE,60,1.0,2.0,95,0.01,,---,0.24,VWS V14.01,2013-07-02 21:29:00,
2013-07-02 17:30:00,62.6,61.2,30.17,East,86,4.0,4.0,95,0.01,,---,0.24,VWS V14.01,2013-07-02 21:30:00,
2013-07-02 17:33:00,62.5,60.8,30.17,NE,46,4.0,4.0,94,0.01,,---,0.24,VWS V14.01,2013-07-02 21:33:00,
2013-07-02 17:34:00,62.5,60.8,30.17,ENE,60,4.0,4.0,94,0.01,,---,0.24,VWS V14.01,2013-07-02 21:34:00,
2013-07-02 17:35:00,62.4,60.7,30.17,NE,46,2.0,5.0,94,0.01,,---,0.24,VWS V14.01,2013-07-02 21:35:00,
2013-07-02 17:36:00,62.4,60.7,30.17,ENE,60,2.0,5.0,94,0.01,,---,0.24,VWS V14.01,2013-07-02 21:36:00,
2013-07-02 17:38:00,62.4,60.7,30.17,NNE,25,2.0,5.0,94,0.01,,---,0.24,VWS V14.01,2013-07-02 21:38:00,
2013-07-02 17:41:00,62.4,61.0,30.17,ENE,62,2.0,5.0,95,0.01,,---,0.24,VWS V14.01,2013-07-02 21:41:00,
2013-07-02 17:42:00,62.4,61.0,30.17,ENE,62,1.0,5.0,95,0.01,,---,0.24,VWS V14.01,2013-07-02 21:42:00,
2013-07-02 17:43:00,62.4,61.0,30.17,NNW,328,1.0,5.0,95,0.01,,---,0.24,VWS V14.01,2013-07-02 21:43:00,
2013-07-02 17:46:00,62.4,61.0,30.18,NW,308,1.0,5.0,95,0.01,,---,0.24,VWS V14.01,2013-07-02 21:46:00,
2013-07-02 17:47:00,62.4,61.0,30.18,NNE,31,1.0,5.0,95,0.01,,---,0.24,VWS V14.01,2013-07-02 21:47:00,
2013-07-02 17:49:00,62.4,61.0,30.18,North,9,0.0,5.0,95,0.01,,---,0.24,VWS V14.01,2013-07-02 21:49:00,
2013-07-02 17:51:00,62.5,61.0,30.18,North,1,0.0,5.0,95,0.01,,---,0.24,VWS V14.01,2013-07-02 21:51:00,
2013-07-02 17:52:00,62.4,61.0,30.18,NNW,344,1.0,5.0,95,0.01,,---,0.24,VWS V14.01,2013-07-02 21:52:00,
2013-07-02 17:53:00,62.4,61.0,30.18,NNW,332,3.0,5.0,95,0.01,,---,0.24,VWS V14.01,2013-07-02 21:53:00,
2013-07-02 17:55:00,62.4,61.0,30.18,North,356,2.0,5.0,95,0.01,,---,0.24,VWS V14.01,2013-07-02 21:55:00,
2013-07-02 17:57:00,62.3,60.8,30.18,NNW,343,1.0,5.0,95,0.01,,---,0.24,VWS V14.01,2013-07-02 21:57:00,
2013-07-02 17:59:00,62.3,60.8,30.18,NNW,343,0.0,1.0,95,0.00,,---,0.24,VWS V14.01,2013-07-02 21:59:00,
2013-07-02 18:00:00,62.3,60.8,30.18,NNW,343,0.0,1.0,95,0.00,,---,0.24,VWS V14.01,2013-07-02 22:00:00,
2013-07-02 18:02:00,62.3,60.8,30.18,NNW,342,0.0,1.0,95,0.00,,---,0.24,VWS V14.01,2013-07-02 22:02:00,
2013-07-02 18:03:00,62.2,60.8,30.18,NNW,343,2.0,2.0,95,0.00,,---,0.24,VWS V14.01,2013-07-02 22:03:00,
2013-07-02 18:05:00,62.2,60.8,30.18,NNW,343,0.0,2.0,95,0.00,,---,0.24,VWS V14.01,2013-07-02 22:05:00,
2013-07-02 18:07:00,62.2,60.8,30.18,NNW,343,0.0,2.0,95,0.00,,---,0.24,VWS V14.01,2013-07-02 22:07:00,
2013-07-02 18:08:00,62.2,60.8,30.17,East,91,0.0,2.0,95,0.00,,---,0.24,VWS V14.01,2013-07-02 22:08:00,
2013-07-02 18:09:00,62.2,60.8,30.17,East,90,0.0,2.0,95,0.00,,---,0.24,VWS V14.01,2013-07-02 22:09:00,
2013-07-02 18:10:00,62.2,60.8,30.17,East,91,0.0,2.0,95,0.00,,---,0.24,VWS V14.01,2013-07-02 22:10:00,
2013-07-02 18:12:00,62.1,60.7,30.17,NE,40,0.0,2.0,95,0.00,,---,0.24,VWS V14.01,2013-07-02 22:12:00,
2013-07-02 18:13:00,62.1,60.7,30.17,NE,39,0.0,2.0,95,0.00,,---,0.24,VWS V14.01,2013-07-02 22:13:00,
2013-07-02 18:14:00,62.1,60.7,30.17,NE,40,0.0,2.0,95,0.00,,---,0.24,VWS V14.01,2013-07-02 22:14:00,
2013-07-02 18:15:00,62.1,60.7,30.17,NE,40,0.0,2.0,95,0.00,,---,0.24,VWS V14.01,2013-07-02 22:15:00,
2013-07-02 18:18:00,62.2,61.0,30.17,NE,44,0.0,2.0,96,0.00,,---,0.24,VWS V14.01,2013-07-02 22:18:00,
2013-07-02 18:19:00,62.2,61.0,30.17,NE,44,0.0,2.0,96,0.00,,---,0.24,VWS V14.01,2013-07-02 22:19:00,
2013-07-02 18:20:00,62.2,61.0,30.17,ENE,75,1.0,2.0,96,0.00,,---,0.24,VWS V14.01,2013-07-02 22:20:00,
2013-07-02 18:24:00,62.0,60.6,30.17,NE,41,1.0,5.0,95,0.00,,---,0.24,VWS V14.01,2013-07-02 22:24:00,
2013-07-02 18:25:00,62.0,60.6,30.17,NE,46,2.0,5.0,95,0.00,,---,0.24,VWS V14.01,2013-07-02 22:25:00,
2013-07-02 18:26:00,62.0,60.6,30.17,ENE,70,3.0,5.0,95,0.00,,---,0.24,VWS V14.01,2013-07-02 22:26:00,
2013-07-02 18:27:00,62.0,60.6,30.17,ENE,72,2.0,5.0,95,0.00,,---,0.24,VWS V14.01,2013-07-02 22:27:00,
2013-07-02 18:30:00,62.0,60.6,30.17,NE,46,2.0,8.0,95,0.00,,---,0.24,VWS V14.01,2013-07-02 22:30:00,
2013-07-02 18:31:00,62.0,60.6,30.17,NE,55,2.0,8.0,95,0.00,,---,0.24,VWS V14.01,2013-07-02 22:31:00,
2013-07-02 18:33:00,62.0,60.6,30.17,ENE,65,3.0,8.0,95,0.00,,---,0.24,VWS V14.01,2013-07-02 22:33:00,
2013-07-02 18:34:00,61.8,60.7,30.18,East,81,0.0,3.0,96,0.00,,---,0.24,VWS V14.01,2013-07-02 22:34:00,
2013-07-02 18:35:00,62.0,60.6,30.17,ENE,70,2.0,8.0,95,0.00,,---,0.24,VWS V14.01,2013-07-02 22:35:00,
2013-07-02 18:36:00,61.8,60.7,30.19,North,4,0.0,3.0,96,0.00,,---,0.24,VWS V14.01,2013-07-02 22:36:00,
2013-07-02 18:37:00,62.1,60.7,30.17,NNE,33,2.0,8.0,95,0.00,,---,0.24,VWS V14.01,2013-07-02 22:37:00,
2013-07-02 18:38:00,62.0,60.6,30.17,ENE,60,5.0,8.0,95,0.00,,---,0.24,VWS V14.01,2013-07-02 22:38:00,
2013-07-02 18:39:00,62.0,60.6,30.17,NE,48,2.0,8.0,95,0.00,,---,0.24,VWS V14.01,2013-07-02 22:39:00,
2013-07-02 18:40:00,62.0,60.6,30.17,East,101,6.0,8.0,95,0.00,,---,0.24,VWS V14.01,2013-07-02 22:40:00,
2013-07-02 18:41:00,62.0,60.6,30.17,NE,51,4.0,8.0,95,0.00,,---,0.24,VWS V14.01,2013-07-02 22:41:00,
2013-07-02 18:42:00,62.0,60.6,30.17,ENE,68,2.0,8.0,95,0.00,,---,0.24,VWS V14.01,2013-07-02 22:42:00,
2013-07-02 18:43:00,61.6,60.5,30.18,NE,39,0.0,5.0,96,0.00,,---,0.24,VWS V14.01,2013-07-02 22:43:00,
2013-07-02 18:44:00,61.6,60.5,30.18,ENE,60,2.0,5.0,96,0.00,,---,0.24,VWS V14.01,2013-07-02 22:44:00,
2013-07-02 18:45:00,61.9,60.5,30.17,ENE,65,1.0,8.0,95,0.00,,---,0.24,VWS V14.01,2013-07-02 22:45:00,
2013-07-02 18:46:00,61.9,60.5,30.17,ENE,63,4.0,8.0,95,0.00,,---,0.24,VWS V14.01,2013-07-02 22:46:00,
2013-07-02 18:48:00,61.8,60.4,30.17,NE,53,0.0,8.0,95,0.00,,---,0.24,VWS V14.01,2013-07-02 22:48:00,
2013-07-02 18:51:00,61.8,60.4,30.17,NNE,27,2.0,8.0,95,0.00,,---,0.24,VWS V14.01,2013-07-02 22:51:00,
2013-07-02 18:52:00,61.8,60.4,30.17,ENE,68,2.0,8.0,95,0.00,,---,0.24,VWS V14.01,2013-07-02 22:52:00,
2013-07-02 18:54:00,61.8,60.4,30.17,ENE,75,3.0,8.0,95,0.00,,---,0.24,VWS V14.01,2013-07-02 22:54:00,
2013-07-02 18:56:00,61.8,60.4,30.18,ENE,73,1.0,8.0,95,0.00,,---,0.24,VWS V14.01,2013-07-02 22:56:00,
2013-07-02 18:57:00,61.8,60.4,30.18,ENE,62,3.0,8.0,95,0.00,,---,0.24,VWS V14.01,2013-07-02 22:57:00,
2013-07-02 18:58:00,61.6,60.5,30.19,ENE,62,1.0,6.0,96,0.00,,---,0.24,VWS V14.01,2013-07-02 22:58:00,
2013-07-02 18:59:00,61.9,60.5,30.18,ENE,69,1.0,2.0,95,0.00,,---,0.24,VWS V14.01,2013-07-02 22:59:00,
2013-07-02 19:00:00,61.9,60.5,30.18,East,80,3.0,4.0,95,0.00,,---,0.24,VWS V14.01,2013-07-02 23:00:00,
2013-07-02 19:01:00,61.6,60.5,30.19,ENE,57,1.0,1.0,96,0.00,,---,0.24,VWS V14.01,2013-07-02 23:01:00,
2013-07-02 19:02:00,61.9,60.5,30.18,East,94,4.0,5.0,95,0.00,,---,0.24,VWS V14.01,2013-07-02 23:02:00,
2013-07-02 19:03:00,61.9,60.5,30.18,ENE,72,7.0,7.0,95,0.00,,---,0.24,VWS V14.01,2013-07-02 23:03:00,
2013-07-02 19:04:00,61.9,60.5,30.18,ENE,63,2.0,7.0,95,0.00,,---,0.24,VWS V14.01,2013-07-02 23:04:00,
2013-07-02 19:05:00,61.6,60.5,30.19,ENE,70,1.0,2.0,96,0.00,,---,0.24,VWS V14.01,2013-07-02 23:05:00,
2013-07-02 19:06:00,61.8,60.4,30.18,ENE,69,2.0,7.0,95,0.00,,---,0.24,VWS V14.01,2013-07-02 23:06:00,
2013-07-02 19:07:00,61.6,60.5,30.19,NE,44,1.0,2.0,96,0.00,,---,0.24,VWS V14.01,2013-07-02 23:07:00,
2013-07-02 19:08:00,61.8,60.4,30.18,NE,45,2.0,7.0,95,0.00,,---,0.24,VWS V14.01,2013-07-02 23:08:00,
2013-07-02 19:09:00,61.8,60.4,30.18,NE,56,3.0,7.0,95,0.00,,---,0.24,VWS V14.01,2013-07-02 23:09:00,
2013-07-02 19:10:00,61.7,60.3,30.18,ENE,67,5.0,7.0,95,0.00,,---,0.24,VWS V14.01,2013-07-02 23:10:00,
2013-07-02 19:11:00,61.7,60.3,30.18,NNE,25,2.0,7.0,95,0.00,,---,0.24,VWS V14.01,2013-07-02 23:11:00,
2013-07-02 19:12:00,61.5,60.3,30.19,NE,41,0.0,2.0,96,0.00,,---,0.24,VWS V14.01,2013-07-02 23:12:00,
2013-07-02 19:13:00,61.6,60.2,30.18,ENE,60,3.0,7.0,95,0.00,,---,0.24,VWS V14.01,2013-07-02 23:13:00,
2013-07-02 19:14:00,61.6,60.2,30.18,ENE,60,2.0,7.0,95,0.00,,---,0.24,VWS V14.01,2013-07-02 23:14:00,
2013-07-02 19:15:00,61.5,60.3,30.20,NE,41,0.0,2.0,96,0.00,,---,0.24,VWS V14.01,2013-07-02 23:15:00,
2013-07-02 19:16:00,61.6,60.5,30.18,ENE,62,3.0,7.0,96,0.00,,---,0.24,VWS V14.01,2013-07-02 23:16:00,
2013-07-02 19:17:00,61.5,60.3,30.20,NE,41,0.0,2.0,96,0.00,,---,0.24,VWS V14.01,2013-07-02 23:17:00,
2013-07-02 19:18:00,61.6,60.5,30.18,NE,53,2.0,7.0,96,0.00,,---,0.24,VWS V14.01,2013-07-02 23:18:00,
2013-07-02 19:19:00,61.6,60.5,30.18,ENE,57,2.0,7.0,96,0.00,,---,0.24,VWS V14.01,2013-07-02 23:19:00,
2013-07-02 19:20:00,61.7,60.5,30.18,ENE,60,4.0,7.0,96,0.00,,---,0.24,VWS V14.01,2013-07-02 23:20:00,
2013-07-02 19:22:00,61.7,60.5,30.18,ENE,63,3.0,7.0,96,0.00,,---,0.24,VWS V14.01,2013-07-02 23:22:00,
2013-07-02 19:23:00,61.6,60.5,30.20,ENE,63,0.0,3.0,96,0.00,,---,0.24,VWS V14.01,2013-07-02 23:23:00,
2013-07-02 19:24:00,61.7,60.5,30.18,ENE,58,4.0,7.0,96,0.00,,---,0.24,VWS V14.01,2013-07-02 23:24:00,
2013-07-02 19:25:00,61.6,60.5,30.18,ENE,63,3.0,7.0,96,0.00,,---,0.24,VWS V14.01,2013-07-02 23:25:00,
2013-07-02 19:26:00,61.5,60.3,30.20,ENE,65,1.0,3.0,96,0.00,,---,0.24,VWS V14.01,2013-07-02 23:26:00,
2013-07-02 19:28:00,61.7,60.5,30.18,ENE,78,2.0,7.0,96,0.00,,---,0.24,VWS V14.01,2013-07-02 23:28:00,
2013-07-02 19:29:00,61.7,60.5,30.18,ENE,63,1.0,2.0,96,0.00,,---,0.24,VWS V14.01,2013-07-02 23:29:00,
2013-07-02 19:30:00,61.7,60.5,30.18,NE,54,0.0,2.0,96,0.00,,---,0.24,VWS V14.01,2013-07-02 23:30:00,
2013-07-02 19:32:00,61.5,60.3,30.20,ENE,60,1.0,4.0,96,0.00,,---,0.24,VWS V14.01,2013-07-02 23:32:00,
2013-07-02 19:33:00,61.5,60.3,30.20,ENE,60,1.0,4.0,96,0.00,,---,0.24,VWS V14.01,2013-07-02 23:33:00,
2013-07-02 19:34:00,61.8,60.7,30.18,North,3,0.0,3.0,96,0.00,,---,0.24,VWS V14.01,2013-07-02 23:34:00,
2013-07-02 19:35:00,61.8,60.7,30.19,North,3,1.0,3.0,96,0.00,,---,0.24,VWS V14.01,2013-07-02 23:35:00,
2013-07-02 19:36:00,61.5,60.3,30.20,NE,45,0.0,4.0,96,0.00,,---,0.24,VWS V14.01,2013-07-02 23:36:00,
2013-07-02 19:37:00,61.7,60.5,30.19,North,10,0.0,3.0,96,0.00,,---,0.24,VWS V14.01,2013-07-02 23:37:00,
2013-07-02 19:39:00,61.7,60.5,30.18,ENE,65,5.0,5.0,96,0.00,,---,0.24,VWS V14.01,2013-07-02 23:39:00,
2013-07-02 19:40:00,61.7,60.5,30.18,ENE,60,1.0,5.0,96,0.00,,---,0.24,VWS V14.01,2013-07-02 23:40:00,
2013-07-02 19:41:00,61.5,60.3,30.20,ENE,69,1.0,4.0,96,0.00,,---,0.24,VWS V14.01,2013-07-02 23:41:00,
2013-07-02 19:42:00,61.5,60.3,30.20,East,79,1.0,4.0,96,0.00,,---,0.24,VWS V14.01,2013-07-02 23:42:00,
2013-07-02 19:43:00,61.6,60.5,30.19,ENE,62,2.0,5.0,96,0.00,,---,0.24,VWS V14.01,2013-07-02 23:43:00,
2013-07-02 19:44:00,61.6,60.7,30.20,East,79,0.0,4.0,97,0.00,,---,0.24,VWS V14.01,2013-07-02 23:44:00,
2013-07-02 19:45:00,61.6,60.5,30.19,ENE,62,2.0,5.0,96,0.00,,---,0.24,VWS V14.01,2013-07-02 23:45:00,
2013-07-02 19:46:00,61.6,60.5,30.18,ENE,65,0.0,5.0,96,0.00,,---,0.24,VWS V14.01,2013-07-02 23:46:00,
2013-07-02 19:47:00,61.6,60.5,30.20,ENE,78,2.0,5.0,96,0.00,,---,0.24,VWS V14.01,2013-07-02 23:47:00,
2013-07-02 19:48:00,61.5,60.3,30.20,East,87,0.0,5.0,96,0.00,,---,0.24,VWS V14.01,2013-07-02 23:48:00,
2013-07-02 19:49:00,61.7,60.5,30.18,ENE,69,1.0,6.0,96,0.00,,---,0.24,VWS V14.01,2013-07-02 23:49:00,
2013-07-02 19:50:00,61.7,60.5,30.18,NE,47,2.0,6.0,96,0.00,,---,0.24,VWS V14.01,2013-07-02 23:50:00,
2013-07-02 19:51:00,61.6,60.5,30.19,ENE,77,3.0,6.0,96,0.00,,---,0.24,VWS V14.01,2013-07-02 23:51:00,
2013-07-02 19:52:00,61.6,60.5,30.19,ENE,68,2.0,6.0,96,0.00,,---,0.24,VWS V14.01,2013-07-02 23:52:00,
2013-07-02 19:56:00,61.6,60.5,30.19,ENE,62,1.0,6.0,96,0.00,,---,0.24,VWS V14.01,2013-07-02 23:56:00,
2013-07-02 19:57:00,61.6,60.5,30.19,ENE,57,1.0,6.0,96,0.00,,---,0.24,VWS V14.01,2013-07-02 23:57:00,
2013-07-02 19:58:00,61.6,60.5,30.19,ENE,57,0.0,6.0,96,0.00,,---,0.24,VWS V14.01,2013-07-02 23:58:00,
2013-07-02 20:02:00,61.6,60.5,30.19,NW,316,0.0,2.0,96,0.00,,---,0.24,VWS V14.01,2013-07-03 00:02:00,
2013-07-02 20:03:00,61.6,60.5,30.19,ENE,70,1.0,2.0,96,0.00,,---,0.24,VWS V14.01,2013-07-03 00:03:00,
2013-07-02 20:04:00,61.6,60.5,30.20,East,83,0.0,2.0,96,0.00,,---,0.24,VWS V14.01,2013-07-03 00:04:00,
2013-07-02 20:06:00,61.6,60.5,30.20,East,83,0.0,2.0,96,0.00,,---,0.24,VWS V14.01,2013-07-03 00:06:00,
2013-07-02 20:07:00,61.6,60.5,30.20,East,83,0.0,2.0,96,0.00,,---,0.24,VWS V14.01,2013-07-03 00:07:00,
2013-07-02 20:08:00,61.5,60.3,30.19,NE,41,1.0,2.0,96,0.00,,---,0.24,VWS V14.01,2013-07-03 00:08:00,
2013-07-02 20:09:00,61.5,60.3,30.19,NE,41,0.0,2.0,96,0.00,,---,0.24,VWS V14.01,2013-07-03 00:09:00,
2013-07-02 20:10:00,61.7,60.5,30.20,East,91,0.0,2.0,96,0.00,,---,0.24,VWS V14.01,2013-07-03 00:10:00,
2013-07-02 20:11:00,61.6,60.5,30.20,East,90,0.0,2.0,96,0.00,,---,0.24,VWS V14.01,2013-07-03 00:11:00,
2013-07-02 20:12:00,61.6,60.5,30.20,East,90,0.0,2.0,96,0.00,,---,0.24,VWS V14.01,2013-07-03 00:12:00,
2013-07-02 20:13:00,61.6,60.5,30.20,East,91,0.0,2.0,96,0.00,,---,0.24,VWS V14.01,2013-07-03 00:13:00,
2013-07-02 20:14:00,61.6,60.5,30.20,East,94,0.0,2.0,96,0.00,,---,0.24,VWS V14.01,2013-07-03 00:14:00,
2013-07-02 20:15:00,61.5,60.3,30.20,NE,41,0.0,2.0,96,0.00,,---,0.24,VWS V14.01,2013-07-03 00:15:00,
2013-07-02 20:16:00,61.6,60.5,30.20,East,86,0.0,2.0,96,0.00,,---,0.24,VWS V14.01,2013-07-03 00:16:00,
2013-07-02 20:17:00,61.6,60.5,30.20,ENE,77,2.0,2.0,96,0.00,,---,0.24,VWS V14.01,2013-07-03 00:17:00,
2013-07-02 20:18:00,61.6,60.5,30.20,East,82,1.0,2.0,96,0.00,,---,0.24,VWS V14.01,2013-07-03 00:18:00,
2013-07-02 20:19:00,61.6,60.5,30.20,ENE,65,0.0,2.0,96,0.00,,---,0.24,VWS V14.01,2013-07-03 00:19:00,
2013-07-02 20:20:00,61.6,60.5,30.20,NE,46,0.0,2.0,96,0.00,,---,0.24,VWS V14.01,2013-07-03 00:20:00,
2013-07-02 20:21:00,61.6,60.5,30.20,ENE,62,1.0,3.0,96,0.00,,---,0.24,VWS V14.01,2013-07-03 00:21:00,
2013-07-02 20:22:00,61.6,60.5,30.20,ENE,62,1.0,3.0,96,0.00,,---,0.24,VWS V14.01,2013-07-03 00:22:00,
2013-07-02 20:24:00,61.4,60.2,30.21,ENE,65,0.0,5.0,96,0.00,,---,0.24,VWS V14.01,2013-07-03 00:24:00,
2013-07-02 20:25:00,61.5,60.3,30.20,ENE,62,1.0,3.0,96,0.00,,---,0.24,VWS V14.01,2013-07-03 00:25:00,
2013-07-02 20:26:00,61.5,60.3,30.20,ENE,58,0.0,3.0,96,0.00,,---,0.24,VWS V14.01,2013-07-03 00:26:00,
2013-07-02 20:27:00,61.5,60.3,30.20,ENE,60,1.0,3.0,96,0.00,,---,0.24,VWS V14.01,2013-07-03 00:27:00,
2013-07-02 20:28:00,61.3,60.2,30.21,ENE,58,1.0,5.0,96,0.00,,---,0.24,VWS V14.01,2013-07-03 00:28:00,
2013-07-02 20:29:00,61.3,60.2,30.21,ENE,63,0.0,5.0,96,0.00,,---,0.24,VWS V14.01,2013-07-03 00:29:00,
2013-07-02 20:30:00,61.5,60.3,30.20,ENE,58,2.0,4.0,96,0.00,,---,0.24,VWS V14.01,2013-07-03 00:30:00,
2013-07-02 20:31:00,61.5,60.3,30.20,ENE,60,1.0,4.0,96,0.00,,---,0.24,VWS V14.01,2013-07-03 00:31:00,
2013-07-02 20:32:00,61.5,60.3,30.20,ENE,60,0.0,4.0,96,0.00,,---,0.24,VWS V14.01,2013-07-03 00:32:00,
2013-07-02 20:33:00,61.2,60.0,30.21,ENE,65,0.0,3.0,96,0.00,,---,0.24,VWS V14.01,2013-07-03 00:33:00,
2013-07-02 20:34:00,61.2,60.0,30.21,NE,44,2.0,3.0,96,0.00,,---,0.24,VWS V14.01,2013-07-03 00:34:00,
2013-07-02 20:35:00,61.5,60.3,30.20,NE,46,0.0,4.0,96,0.00,,---,0.24,VWS V14.01,2013-07-03 00:35:00,
2013-07-02 20:37:00,61.5,60.3,30.20,ENE,63,2.0,4.0,96,0.00,,---,0.24,VWS V14.01,2013-07-03 00:37:00,
2013-07-02 20:39:00,61.1,60.0,30.21,NE,45,2.0,5.0,96,0.01,,---,0.25,VWS V14.01,2013-07-03 00:39:00,
2013-07-02 20:40:00,61.1,60.0,30.21,ENE,60,1.0,5.0,96,0.01,,---,0.25,VWS V14.01,2013-07-03 00:40:00,
2013-07-02 20:41:00,61.5,60.6,30.20,ENE,77,0.0,4.0,97,0.00,,---,0.24,VWS V14.01,2013-07-03 00:41:00,
2013-07-02 20:42:00,61.6,60.7,30.20,East,79,2.0,4.0,97,0.00,,---,0.24,VWS V14.01,2013-07-03 00:42:00,
2013-07-02 20:43:00,61.6,60.7,30.20,ENE,72,4.0,4.0,97,0.00,,---,0.24,VWS V14.01,2013-07-03 00:43:00,
2013-07-02 20:45:00,61.5,60.3,30.20,ENE,75,2.0,5.0,96,0.00,,---,0.24,VWS V14.01,2013-07-03 00:45:00,
2013-07-02 20:47:00,61.5,60.3,30.20,East,86,2.0,5.0,96,0.00,,---,0.24,VWS V14.01,2013-07-03 00:47:00,
2013-07-02 20:49:00,61.6,60.5,30.20,ENE,76,1.0,5.0,96,0.00,,---,0.24,VWS V14.01,2013-07-03 00:49:00,
2013-07-02 20:50:00,61.6,60.5,30.20,East,79,0.0,5.0,96,0.00,,---,0.24,VWS V14.01,2013-07-03 00:50:00,
2013-07-02 20:51:00,60.9,60.0,30.21,ENE,68,1.0,5.0,97,0.02,,---,0.26,VWS V14.01,2013-07-03 00:51:00,
2013-07-02 20:52:00,61.6,60.5,30.20,East,85,2.0,5.0,96,0.00,,---,0.24,VWS V14.01,2013-07-03 00:52:00,
2013-07-02 20:53:00,61.6,60.5,30.20,East,94,0.0,5.0,96,0.00,,---,0.24,VWS V14.01,2013-07-03 00:53:00,
2013-07-02 20:54:00,61.6,60.5,30.20,East,95,0.0,5.0,96,0.00,,---,0.24,VWS V14.01,2013-07-03 00:54:00,
2013-07-02 20:55:00,61.6,60.5,30.20,East,94,0.0,5.0,96,0.00,,---,0.24,VWS V14.01,2013-07-03 00:55:00,
2013-07-02 20:56:00,61.6,60.5,30.20,East,96,2.0,5.0,96,0.00,,---,0.24,VWS V14.01,2013-07-03 00:56:00,
2013-07-02 20:57:00,60.9,60.0,30.21,ENE,60,0.0,5.0,97,0.02,,---,0.26,VWS V14.01,2013-07-03 00:57:00,
2013-07-02 20:58:00,61.6,60.5,30.20,East,96,0.0,5.0,96,0.00,,---,0.24,VWS V14.01,2013-07-03 00:58:00,
2013-07-02 20:59:00,61.7,60.5,30.20,East,96,0.0,0.0,96,0.00,,---,0.24,VWS V14.01,2013-07-03 00:59:00,
2013-07-02 21:00:00,61.7,60.5,30.20,East,96,1.0,1.0,96,0.00,,---,0.24,VWS V14.01,2013-07-03 01:00:00,
2013-07-02 21:01:00,60.9,60.0,30.21,ENE,68,0.0,1.0,97,0.02,,---,0.26,VWS V14.01,2013-07-03 01:01:00,
2013-07-02 21:02:00,60.8,60.0,30.21,ENE,58,1.0,2.0,97,0.02,,---,0.26,VWS V14.01,2013-07-03 01:02:00,
2013-07-02 21:03:00,60.9,60.0,30.21,ENE,63,0.0,2.0,97,0.02,,---,0.26,VWS V14.01,2013-07-03 01:03:00,
2013-07-02 21:04:00,61.6,60.5,30.20,East,84,0.0,2.0,96,0.00,,---,0.24,VWS V14.01,2013-07-03 01:04:00,
2013-07-02 21:05:00,60.8,60.0,30.21,ENE,60,1.0,2.0,97,0.02,,---,0.26,VWS V14.01,2013-07-03 01:05:00,
2013-07-02 21:06:00,61.6,60.5,30.20,East,79,1.0,2.0,96,0.00,,---,0.24,VWS V14.01,2013-07-03 01:06:00,
2013-07-02 21:07:00,60.8,60.0,30.21,ENE,65,0.0,2.0,97,0.02,,---,0.26,VWS V14.01,2013-07-03 01:07:00,
2013-07-02 21:08:00,60.8,60.0,30.21,ENE,65,1.0,2.0,97,0.02,,---,0.26,VWS V14.01,2013-07-03 01:08:00,
2013-07-02 21:09:00,61.6,60.5,30.20,East,90,0.0,2.0,96,0.00,,---,0.24,VWS V14.01,2013-07-03 01:09:00,
2013-07-02 21:11:00,61.6,60.5,30.20,East,90,0.0,2.0,96,0.00,,---,0.24,VWS V14.01,2013-07-03 01:11:00,
2013-07-02 21:15:00,61.6,60.5,30.20,East,79,2.0,2.0,96,0.00,,---,0.24,VWS V14.01,2013-07-03 01:15:00,
2013-07-02 21:16:00,61.6,60.5,30.20,East,82,0.0,2.0,96,0.00,,---,0.24,VWS V14.01,2013-07-03 01:16:00,
2013-07-02 21:18:00,61.6,60.5,30.20,ENE,62,1.0,4.0,96,0.00,,---,0.24,VWS V14.01,2013-07-03 01:18:00,
2013-07-02 21:19:00,61.6,60.5,30.20,ENE,60,2.0,4.0,96,0.00,,---,0.24,VWS V14.01,2013-07-03 01:19:00,
2013-07-02 21:20:00,61.5,60.3,30.20,North,9,3.0,5.0,96,0.00,,---,0.24,VWS V14.01,2013-07-03 01:20:00,
2013-07-02 21:23:00,61.3,60.2,30.21,ENE,58,1.0,5.0,96,0.00,,---,0.24,VWS V14.01,2013-07-03 01:23:00,
2013-07-02 21:24:00,61.3,60.2,30.21,ENE,62,0.0,5.0,96,0.00,,---,0.24,VWS V14.01,2013-07-03 01:24:00,
2013-07-02 21:27:00,61.3,60.2,30.21,ENE,63,1.0,5.0,96,0.00,,---,0.24,VWS V14.01,2013-07-03 01:27:00,
2013-07-02 21:29:00,61.2,60.0,30.21,ENE,69,0.0,0.0,96,0.00,,---,0.24,VWS V14.01,2013-07-03 01:29:00,
2013-07-02 21:30:00,61.2,60.0,30.21,ENE,69,0.0,0.0,96,0.00,,---,0.24,VWS V14.01,2013-07-03 01:30:00,
2013-07-02 21:32:00,61.2,60.0,30.21,ENE,65,0.0,3.0,96,0.00,,---,0.24,VWS V14.01,2013-07-03 01:32:00,
2013-07-02 21:34:00,61.2,60.0,30.21,ENE,68,0.0,3.0,96,0.01,,---,0.25,VWS V14.01,2013-07-03 01:34:00,
2013-07-02 21:35:00,61.1,60.0,30.21,NNE,32,3.0,3.0,96,0.01,,---,0.25,VWS V14.01,2013-07-03 01:35:00,
2013-07-02 21:36:00,61.1,60.0,30.21,NNE,21,3.0,5.0,96,0.01,,---,0.25,VWS V14.01,2013-07-03 01:36:00,
2013-07-02 21:37:00,61.1,60.0,30.21,NNW,345,5.0,5.0,96,0.01,,---,0.25,VWS V14.01,2013-07-03 01:37:00,
2013-07-02 21:38:00,60.7,59.8,30.20,ENE,70,0.0,1.0,97,0.03,,---,0.27,VWS V14.01,2013-07-03 01:38:00,
2013-07-02 21:39:00,61.0,59.9,30.21,NE,46,2.0,5.0,96,0.01,,---,0.25,VWS V14.01,2013-07-03 01:39:00,
2013-07-02 21:40:00,61.0,59.9,30.21,NE,51,1.0,5.0,96,0.01,,---,0.25,VWS V14.01,2013-07-03 01:40:00,
2013-07-02 21:41:00,60.8,60.0,30.20,ENE,70,0.0,1.0,97,0.03,,---,0.27,VWS V14.01,2013-07-03 01:41:00,
2013-07-02 21:42:00,61.0,60.2,30.21,ENE,63,0.0,5.0,97,0.01,,---,0.25,VWS V14.01,2013-07-03 01:42:00,
2013-07-02 21:43:00,60.9,60.0,30.21,ENE,63,0.0,5.0,97,0.02,,---,0.26,VWS V14.01,2013-07-03 01:43:00,
2013-07-02 21:44:00,60.9,60.0,30.21,ENE,64,0.0,5.0,97,0.02,,---,0.26,VWS V14.01,2013-07-03 01:44:00,
2013-07-02 21:45:00,61.0,60.2,30.21,ENE,63,0.0,5.0,97,0.02,,---,0.26,VWS V14.01,2013-07-03 01:45:00,
2013-07-02 21:46:00,60.9,60.0,30.21,ENE,64,0.0,5.0,97,0.02,,---,0.26,VWS V14.01,2013-07-03 01:46:00,
2013-07-02 21:47:00,60.9,60.0,30.20,ENE,69,0.0,1.0,97,0.04,,---,0.28,VWS V14.01,2013-07-03 01:47:00,
2013-07-02 21:50:00,60.9,60.0,30.21,ENE,68,0.0,5.0,97,0.02,,---,0.26,VWS V14.01,2013-07-03 01:50:00,
2013-07-02 21:51:00,60.9,60.0,30.20,ENE,70,0.0,1.0,97,0.04,,---,0.28,VWS V14.01,2013-07-03 01:51:00,
2013-07-02 21:52:00,60.9,60.0,30.20,ENE,77,0.0,1.0,97,0.04,,---,0.28,VWS V14.01,2013-07-03 01:52:00,
2013-07-02 21:53:00,60.9,60.0,30.20,ENE,77,0.0,1.0,97,0.04,,---,0.28,VWS V14.01,2013-07-03 01:53:00,
2013-07-02 21:54:00,60.9,60.0,30.20,ENE,77,0.0,1.0,97,0.05,,---,0.29,VWS V14.01,2013-07-03 01:54:00,
2013-07-02 21:55:00,60.9,60.0,30.21,ENE,60,0.0,5.0,97,0.02,,---,0.26,VWS V14.01,2013-07-03 01:55:00,
2013-07-02 21:56:00,60.9,60.0,30.21,ENE,60,0.0,5.0,97,0.02,,---,0.26,VWS V14.01,2013-07-03 01:56:00,
2013-07-02 22:00:00,61.0,60.2,30.20,ENE,77,0.0,0.0,97,0.03,,---,0.29,VWS V14.01,2013-07-03 02:00:00,
2013-07-02 22:01:00,60.9,60.0,30.21,NE,45,2.0,2.0,97,0.02,,---,0.26,VWS V14.01,2013-07-03 02:01:00,
2013-07-02 22:02:00,61.0,60.2,30.20,ENE,77,0.0,0.0,97,0.03,,---,0.29,VWS V14.01,2013-07-03 02:02:00,
2013-07-02 22:03:00,61.0,60.2,30.20,ENE,77,0.0,0.0,97,0.03,,---,0.29,VWS V14.01,2013-07-03 02:03:00,
2013-07-02 22:04:00,61.0,60.2,30.20,ENE,77,0.0,0.0,97,0.03,,---,0.29,VWS V14.01,2013-07-03 02:04:00,
2013-07-02 22:06:00,60.8,60.0,30.21,ENE,65,1.0,2.0,97,0.02,,---,0.26,VWS V14.01,2013-07-03 02:06:00,
2013-07-02 22:07:00,61.1,60.2,30.21,ENE,77,0.0,0.0,97,0.04,,---,0.30,VWS V14.01,2013-07-03 02:07:00,
2013-07-02 22:08:00,60.8,60.0,30.21,ENE,60,2.0,2.0,97,0.02,,---,0.26,VWS V14.01,2013-07-03 02:08:00,
2013-07-02 22:09:00,60.8,60.0,30.21,ENE,63,0.0,3.0,97,0.02,,---,0.26,VWS V14.01,2013-07-03 02:09:00,
2013-07-02 22:11:00,60.8,60.0,30.20,ENE,70,0.0,3.0,97,0.02,,---,0.26,VWS V14.01,2013-07-03 02:11:00,
2013-07-02 22:13:00,60.8,60.0,30.20,ENE,70,0.0,3.0,97,0.02,,---,0.26,VWS V14.01,2013-07-03 02:13:00,
2013-07-02 22:14:00,61.1,60.2,30.21,ENE,77,0.0,0.0,97,0.05,,---,0.31,VWS V14.01,2013-07-03 02:14:00,
2013-07-02 22:15:00,60.8,60.0,30.21,NE,52,2.0,3.0,97,0.02,,---,0.26,VWS V14.01,2013-07-03 02:15:00,
2013-07-02 22:16:00,61.1,60.2,30.21,ENE,78,0.0,0.0,97,0.06,,---,0.32,VWS V14.01,2013-07-03 02:16:00,
2013-07-02 22:17:00,60.8,60.0,30.21,ENE,63,0.0,3.0,97,0.02,,---,0.26,VWS V14.01,2013-07-03 02:17:00,
2013-07-02 22:18:00,61.1,60.2,30.21,ENE,78,0.0,0.0,97,0.06,,---,0.32,VWS V14.01,2013-07-03 02:18:00,
2013-07-02 22:19:00,60.7,59.8,30.21,ENE,66,1.0,3.0,97,0.02,,---,0.26,VWS V14.01,2013-07-03 02:19:00,
2013-07-02 22:21:00,60.7,59.8,30.21,NE,55,1.0,3.0,97,0.03,,---,0.27,VWS V14.01,2013-07-03 02:21:00,
2013-07-02 22:22:00,60.7,59.8,30.21,NE,49,2.0,3.0,97,0.03,,---,0.27,VWS V14.01,2013-07-03 02:22:00,
2013-07-02 22:23:00,61.1,60.2,30.21,ENE,77,0.0,0.0,97,0.07,,---,0.33,VWS V14.01,2013-07-03 02:23:00,
2013-07-02 22:24:00,61.1,60.2,30.21,ENE,78,0.0,0.0,97,0.07,,---,0.33,VWS V14.01,2013-07-03 02:24:00,
2013-07-02 22:25:00,61.0,60.2,30.21,ENE,77,0.0,0.0,97,0.08,,---,0.34,VWS V14.01,2013-07-03 02:25:00,
2013-07-02 22:26:00,60.7,59.8,30.21,ENE,63,0.0,3.0,97,0.03,,---,0.27,VWS V14.01,2013-07-03 02:26:00,
2013-07-02 22:27:00,60.7,59.8,30.21,ENE,62,0.0,3.0,97,0.03,,---,0.27,VWS V14.01,2013-07-03 02:27:00,
2013-07-02 22:28:00,61.0,60.2,30.21,ENE,72,0.0,0.0,97,0.09,,---,0.35,VWS V14.01,2013-07-03 02:28:00,
2013-07-02 22:30:00,60.9,60.0,30.20,ENE,72,0.0,0.0,97,0.09,,---,0.35,VWS V14.01,2013-07-03 02:30:00,
2013-07-02 22:31:00,60.9,60.0,30.20,ENE,72,0.0,0.0,97,0.09,,---,0.36,VWS V14.01,2013-07-03 02:31:00,
2013-07-02 22:32:00,60.7,59.8,30.20,ENE,69,0.0,1.0,97,0.03,,---,0.27,VWS V14.01,2013-07-03 02:32:00,
2013-07-02 22:33:00,60.7,59.8,30.21,ENE,70,0.0,1.0,97,0.03,,---,0.27,VWS V14.01,2013-07-03 02:33:00,
2013-07-02 22:35:00,60.9,60.0,30.20,ENE,75,0.0,0.0,97,0.10,,---,0.37,VWS V14.01,2013-07-03 02:35:00,
2013-07-02 22:36:00,60.9,60.0,30.20,East,91,4.0,4.0,97,0.11,,---,0.38,VWS V14.01,2013-07-03 02:36:00,
2013-07-02 22:37:00,60.7,59.8,30.20,ENE,69,0.0,1.0,97,0.03,,---,0.27,VWS V14.01,2013-07-03 02:37:00,
2013-07-02 22:38:00,60.8,60.0,30.20,ENE,69,0.0,1.0,97,0.03,,---,0.27,VWS V14.01,2013-07-03 02:38:00,
2013-07-02 22:39:00,60.8,60.0,30.20,ENE,70,0.0,1.0,97,0.03,,---,0.27,VWS V14.01,2013-07-03 02:39:00,
2013-07-02 22:40:00,61.0,60.2,30.20,East,89,4.0,5.0,97,0.12,,---,0.39,VWS V14.01,2013-07-03 02:40:00,
2013-07-02 22:41:00,61.1,60.2,30.20,ENE,77,4.0,5.0,97,0.12,,---,0.39,VWS V14.01,2013-07-03 02:41:00,
2013-07-02 22:42:00,61.1,60.2,30.20,East,85,3.0,5.0,97,0.12,,---,0.39,VWS V14.01,2013-07-03 02:42:00,
2013-07-02 22:43:00,60.8,60.0,30.20,ENE,69,0.0,1.0,97,0.03,,---,0.27,VWS V14.01,2013-07-03 02:43:00,
2013-07-02 22:44:00,60.8,60.0,30.20,ENE,70,0.0,1.0,97,0.04,,---,0.28,VWS V14.01,2013-07-03 02:44:00,
2013-07-02 22:45:00,61.1,60.2,30.19,East,91,5.0,5.0,97,0.13,,---,0.40,VWS V14.01,2013-07-03 02:45:00,
2013-07-02 22:46:00,60.9,60.0,30.20,ENE,69,0.0,1.0,97,0.04,,---,0.28,VWS V14.01,2013-07-03 02:46:00,
2013-07-02 22:47:00,61.2,60.3,30.19,East,96,5.0,6.0,97,0.14,,---,0.41,VWS V14.01,2013-07-03 02:47:00,
2013-07-02 22:48:00,61.2,60.3,30.19,East,92,4.0,6.0,97,0.14,,---,0.41,VWS V14.01,2013-07-03 02:48:00,
2013-07-02 22:49:00,61.1,60.2,30.19,East,80,5.0,6.0,97,0.14,,---,0.41,VWS V14.01,2013-07-03 02:49:00,
2013-07-02 22:50:00,61.2,60.3,30.19,East,92,3.0,6.0,97,0.14,,---,0.41,VWS V14.01,2013-07-03 02:50:00,
2013-07-02 22:51:00,60.9,60.0,30.20,ENE,77,0.0,1.0,97,0.04,,---,0.28,VWS V14.01,2013-07-03 02:51:00,
2013-07-02 22:52:00,61.2,60.3,30.20,East,87,5.0,6.0,97,0.15,,---,0.42,VWS V14.01,2013-07-03 02:52:00,
2013-07-02 22:53:00,61.2,60.3,30.20,East,89,3.0,6.0,97,0.15,,---,0.42,VWS V14.01,2013-07-03 02:53:00,
2013-07-02 22:54:00,61.2,60.3,30.20,East,87,2.0,6.0,97,0.15,,---,0.42,VWS V14.01,2013-07-03 02:54:00,
2013-07-02 22:55:00,61.2,60.3,30.20,East,93,4.0,6.0,97,0.15,,---,0.42,VWS V14.01,2013-07-03 02:55:00,
2013-07-02 22:56:00,60.9,60.0,30.20,ENE,77,0.0,1.0,97,0.05,,---,0.29,VWS V14.01,2013-07-03 02:56:00,
2013-07-02 22:57:00,61.0,60.2,30.20,ENE,77,0.0,1.0,97,0.05,,---,0.29,VWS V14.01,2013-07-03 02:57:00,
2013-07-02 22:58:00,61.1,60.2,30.20,ENE,72,4.0,7.0,97,0.16,,---,0.43,VWS V14.01,2013-07-03 02:58:00,
2013-07-02 22:59:00,61.2,60.3,30.20,East,82,4.0,7.0,97,0.16,,---,0.43,VWS V14.01,2013-07-03 02:59:00,
2013-07-02 23:00:00,61.1,60.2,30.20,East,89,3.0,5.0,97,0.15,,---,0.44,VWS V14.01,2013-07-03 03:00:00,
2013-07-02 23:01:00,61.1,60.2,30.20,East,99,3.0,5.0,97,0.15,,---,0.44,VWS V14.01,2013-07-03 03:01:00,
2013-07-02 23:02:00,61.0,60.2,30.20,ENE,77,0.0,0.0,97,0.03,,---,0.29,VWS V14.01,2013-07-03 03:02:00,
2013-07-02 23:03:00,61.0,60.2,30.20,ENE,76,0.0,0.0,97,0.04,,---,0.30,VWS V14.01,2013-07-03 03:03:00,
2013-07-02 23:04:00,61.2,60.3,30.20,East,91,0.0,5.0,97,0.16,,---,0.45,VWS V14.01,2013-07-03 03:04:00,
2013-07-02 23:05:00,61.2,60.3,30.20,ENE,78,0.0,5.0,97,0.17,,---,0.46,VWS V14.01,2013-07-03 03:05:00,
2013-07-02 23:06:00,61.1,60.2,30.21,ENE,77,0.0,0.0,97,0.04,,---,0.30,VWS V14.01,2013-07-03 03:06:00,
2013-07-02 23:07:00,61.1,60.2,30.20,East,79,0.0,5.0,97,0.18,,---,0.47,VWS V14.01,2013-07-03 03:07:00,
2013-07-02 23:08:00,61.1,60.2,30.21,ENE,77,0.0,0.0,97,0.04,,---,0.30,VWS V14.01,2013-07-03 03:08:00,
2013-07-02 23:09:00,61.1,60.2,30.21,ENE,77,0.0,0.0,97,0.04,,---,0.30,VWS V14.01,2013-07-03 03:09:00,
2013-07-02 23:10:00,61.1,60.2,30.20,East,79,1.0,5.0,97,0.19,,---,0.48,VWS V14.01,2013-07-03 03:10:00,
2013-07-02 23:11:00,61.1,60.2,30.21,ENE,78,0.0,0.0,97,0.05,,---,0.31,VWS V14.01,2013-07-03 03:11:00,
2013-07-02 23:12:00,61.1,60.2,30.20,East,79,0.0,5.0,97,0.20,,---,0.49,VWS V14.01,2013-07-03 03:12:00,
2013-07-02 23:13:00,61.1,60.2,30.20,East,79,1.0,5.0,97,0.20,,---,0.49,VWS V14.01,2013-07-03 03:13:00,
2013-07-02 23:14:00,61.1,60.2,30.20,East,79,1.0,5.0,97,0.20,,---,0.49,VWS V14.01,2013-07-03 03:14:00,
2013-07-02 23:15:00,61.1,60.2,30.21,ENE,77,0.0,0.0,97,0.06,,---,0.32,VWS V14.01,2013-07-03 03:15:00,
2013-07-02 23:16:00,61.1,60.2,30.21,ENE,78,0.0,0.0,97,0.06,,---,0.32,VWS V14.01,2013-07-03 03:16:00,
2013-07-02 23:17:00,61.0,60.2,30.20,East,79,0.0,5.0,97,0.22,,---,0.51,VWS V14.01,2013-07-03 03:17:00,
2013-07-02 23:18:00,61.1,60.2,30.21,ENE,77,0.0,0.0,97,0.06,,---,0.32,VWS V14.01,2013-07-03 03:18:00,
2013-07-02 23:19:00,61.0,60.2,30.20,ENE,78,0.0,5.0,97,0.22,,---,0.51,VWS V14.01,2013-07-03 03:19:00,
2013-07-02 23:20:00,61.0,60.2,30.20,East,79,0.0,5.0,97,0.23,,---,0.52,VWS V14.01,2013-07-03 03:20:00,
2013-07-02 23:21:00,61.1,60.2,30.21,ENE,77,0.0,0.0,97,0.07,,---,0.33,VWS V14.01,2013-07-03 03:21:00,
2013-07-02 23:22:00,60.9,60.0,30.20,East,79,0.0,5.0,97,0.23,,---,0.52,VWS V14.01,2013-07-03 03:22:00,
2013-07-02 23:23:00,61.1,60.2,30.21,ENE,77,0.0,0.0,97,0.07,,---,0.33,VWS V14.01,2013-07-03 03:23:00,
2013-07-02 23:25:00,60.9,60.0,30.20,East,79,0.0,5.0,97,0.23,,---,0.52,VWS V14.01,2013-07-03 03:25:00,
2013-07-02 23:26:00,61.0,60.2,30.21,ENE,72,0.0,0.0,97,0.09,,---,0.35,VWS V14.01,2013-07-03 03:26:00,
2013-07-02 23:28:00,61.0,60.2,30.20,ENE,72,0.0,0.0,97,0.09,,---,0.35,VWS V14.01,2013-07-03 03:28:00,
2013-07-02 23:29:00,60.9,60.0,30.20,East,79,0.0,5.0,97,0.24,,---,0.53,VWS V14.01,2013-07-03 03:29:00,
2013-07-02 23:30:00,60.9,60.0,30.20,East,79,0.0,0.0,97,0.18,,---,0.53,VWS V14.01,2013-07-03 03:30:00,
2013-07-02 23:32:00,60.9,60.0,30.20,ENE,72,0.0,0.0,97,0.10,,---,0.37,VWS V14.01,2013-07-03 03:32:00,
2013-07-02 23:33:00,60.9,60.0,30.20,East,79,0.0,1.0,97,0.18,,---,0.53,VWS V14.01,2013-07-03 03:33:00,
2013-07-02 23:34:00,60.9,60.0,30.20,East,89,0.0,0.0,97,0.10,,---,0.37,VWS V14.01,2013-07-03 03:34:00,
2013-07-02 23:35:00,60.9,60.0,30.20,East,92,3.0,4.0,97,0.11,,---,0.38,VWS V14.01,2013-07-03 03:35:00,
2013-07-02 23:36:00,60.8,60.0,30.19,East,79,0.0,1.0,97,0.18,,---,0.53,VWS V14.01,2013-07-03 03:36:00,
2013-07-02 23:37:00,60.8,60.0,30.19,East,79,0.0,1.0,97,0.18,,---,0.53,VWS V14.01,2013-07-03 03:37:00,
2013-07-02 23:38:00,60.8,60.0,30.19,East,79,0.0,1.0,97,0.18,,---,0.53,VWS V14.01,2013-07-03 03:38:00,
2013-07-02 23:39:00,61.1,60.2,30.20,East,92,4.0,5.0,97,0.12,,---,0.39,VWS V14.01,2013-07-03 03:39:00,
2013-07-02 23:40:00,61.1,60.2,30.20,East,88,5.0,5.0,97,0.12,,---,0.39,VWS V14.01,2013-07-03 03:40:00,
2013-07-02 23:41:00,60.8,60.0,30.19,East,79,0.0,1.0,97,0.19,,---,0.54,VWS V14.01,2013-07-03 03:41:00,
2013-07-02 23:42:00,60.8,60.0,30.19,East,79,0.0,1.0,97,0.19,,---,0.54,VWS V14.01,2013-07-03 03:42:00,
2013-07-02 23:43:00,60.8,60.0,30.19,East,79,0.0,1.0,97,0.19,,---,0.54,VWS V14.01,2013-07-03 03:43:00,
2013-07-02 23:44:00,60.8,60.0,30.19,East,79,0.0,1.0,97,0.19,,---,0.54,VWS V14.01,2013-07-03 03:44:00,
2013-07-02 23:45:00,60.9,60.0,30.19,East,79,0.0,1.0,97,0.19,,---,0.54,VWS V14.01,2013-07-03 03:45:00,
2013-07-02 23:46:00,61.1,60.2,30.19,East,84,4.0,6.0,97,0.14,,---,0.41,VWS V14.01,2013-07-03 03:46:00,
2013-07-02 23:47:00,61.1,60.2,30.19,East,90,5.0,6.0,97,0.14,,---,0.41,VWS V14.01,2013-07-03 03:47:00,
2013-07-02 23:48:00,60.9,60.0,30.19,ENE,75,1.0,2.0,97,0.19,,---,0.54,VWS V14.01,2013-07-03 03:48:00,
2013-07-02 23:49:00,60.9,60.0,30.19,ENE,75,1.0,2.0,97,0.19,,---,0.54,VWS V14.01,2013-07-03 03:49:00,
2013-07-02 23:50:00,60.9,60.0,30.19,ENE,75,1.0,2.0,97,0.19,,---,0.54,VWS V14.01,2013-07-03 03:50:00,
2013-07-02 23:51:00,61.2,60.3,30.20,East,79,4.0,6.0,97,0.15,,---,0.42,VWS V14.01,2013-07-03 03:51:00,
2013-07-02 23:52:00,60.9,60.0,30.19,ENE,75,0.0,2.0,97,0.19,,---,0.54,VWS V14.01,2013-07-03 03:52:00,
2013-07-02 23:53:00,61.2,60.3,30.20,East,93,3.0,6.0,97,0.15,,---,0.42,VWS V14.01,2013-07-03 03:53:00,
2013-07-02 23:54:00,60.9,60.0,30.19,ENE,74,0.0,2.0,97,0.19,,---,0.54,VWS V14.01,2013-07-03 03:54:00,
2013-07-02 23:55:00,60.9,60.0,30.19,ENE,73,0.0,2.0,97,0.19,,---,0.54,VWS V14.01,2013-07-03 03:55:00,
2013-07-02 23:56:00,60.9,60.0,30.19,ENE,74,0.0,2.0,97,0.19,,---,0.54,VWS V14.01,2013-07-03 03:56:00,
2013-07-02 23:57:00,60.9,60.0,30.19,ENE,73,0.0,2.0,97,0.19,,---,0.54,VWS V14.01,2013-07-03 03:57:00,
2013-07-02 23:58:00,61.1,60.2,30.20,East,98,3.0,5.0,97,0.15,,---,0.44,VWS V14.01,2013-07-03 03:58:00,
2013-07-02 23:59:00,61.1,60.2,30.20,East,94,2.0,5.0,97,0.15,,---,0.44,VWS V14.01,2013-07-03 03:59:00,